M I D A S
Marine Information and Data Acquisition System
Tripno 1984 of the Zeeleeuw from 2010-11-08 07:17:38 to 2010-11-08 14:02:37
Back to CruiseResearch ActivitiesStationsMapUnderway DataData graphs

EquipmentUnitsComment
TimeDGPSUTC
LatitudeDGPSDM.mWGS84
LongitudeDGPSDM.mWGS84
TemperatureSBE03/SBE38deg celciusITS90
ConductivitySBE21S/mITS90
SalinitySBE21 Practical Salinity Units
ChlorophylAChelsea fluorimeterg/lCalibrated in Aceton
Missing or incorrect values are displayed as -999
Sea surface data collected by the RV Zeeleeuw from 2010-11-08 07:08:11 to 2010-11-08 14:30:11
                                                                                    Next 1000 lines
Time Latitude Longitude Temperature Conductivity Salinity ChlorophylA
2010-11-08 07:08:20 51°13.664 2°55.959 17.3845 0.03198 0.174817 -0.617504
2010-11-08 07:08:25 51°13.663 2°55.959 17.3859 0.03198 0.174822 -0.652328
2010-11-08 07:08:30 51°13.662 2°55.958 17.3859 0.03198 0.174822 -0.652328
2010-11-08 07:08:35 51°13.663 2°55.958 17.3885 0.03198 0.174822 -0.652328
2010-11-08 07:08:40 51°13.663 2°55.959 17.3855 0.03198 0.174828 -0.652328
2010-11-08 07:08:44 51°13.663 2°55.959 17.3875 0.03198 0.174828 -0.652328
2010-11-08 07:08:49 51°13.663 2°55.959 17.3895 0.03198 0.174828 -0.652328
2010-11-08 07:08:54 51°13.663 2°55.958 17.3897 0.03198 0.17483 -0.617504
2010-11-08 07:08:59 51°13.664 2°55.958 17.3929 0.03198 0.17483 -0.617504
2010-11-08 07:09:04 51°13.664 2°55.958 17.3916 0.03198 0.174836 -0.652328
2010-11-08 07:09:08 51°13.663 2°55.958 17.3928 0.03198 0.174839 -0.617504
2010-11-08 07:09:14 51°13.663 2°55.959 17.3922 0.03198 0.174839 -0.652328
2010-11-08 07:09:19 51°13.663 2°55.959 17.3902 0.03198 0.174839 -0.652328
2010-11-08 07:09:24 51°13.663 2°55.959 17.39 0.03198 0.174841 -0.652328
2010-11-08 07:09:28 51°13.663 2°55.959 17.389 0.03198 0.174844 -0.652328
2010-11-08 07:09:33 51°13.664 2°55.959 17.3895 0.03198 0.174844 -0.652328
2010-11-08 07:09:38 51°13.664 2°55.959 17.3857 0.03198 0.174847 -0.617504
2010-11-08 07:09:43 51°13.664 2°55.959 17.3803 0.03198 0.17485 -0.652328
2010-11-08 07:09:48 51°13.664 2°55.959 17.3797 0.03198 0.17485 -0.652328
2010-11-08 07:09:52 51°13.664 2°55.959 17.3824 0.03198 0.174852 -0.652328
2010-11-08 07:09:57 51°13.664 2°55.959 17.3817 0.03198 0.174852 -0.652328
2010-11-08 07:10:03 51°13.664 2°55.959 17.3832 0.03198 0.174855 -0.652328
2010-11-08 07:10:08 51°13.664 2°55.959 17.3842 0.03198 0.174858 -0.652328
2010-11-08 07:10:12 51°13.664 2°55.959 17.3824 0.03198 0.17486 -0.617504
2010-11-08 07:10:17 51°13.664 2°55.959 17.3765 0.03198 0.17486 -0.617504
2010-11-08 07:10:22 51°13.664 2°55.959 17.3732 0.03198 0.17486 -0.652328
2010-11-08 07:10:27 51°13.664 2°55.959 17.3737 0.03198 0.174863 -0.652328
2010-11-08 07:10:32 51°13.664 2°55.959 17.373 0.03198 0.174866 -0.652328
2010-11-08 07:10:36 51°13.664 2°55.959 17.3711 0.03198 0.174869 -0.652328
2010-11-08 07:10:41 51°13.664 2°55.959 17.3706 0.03198 0.174871 -0.652328
2010-11-08 07:10:48 51°13.664 2°55.959 17.3726 0.03198 0.174871 -0.652328
2010-11-08 07:10:53 51°13.664 2°55.959 17.3734 0.03198 0.174871 -0.652328
2010-11-08 07:10:57 51°13.664 2°55.959 17.3748 0.03198 0.174874 -0.652328
2010-11-08 07:11:02 51°13.664 2°55.959 17.3744 0.03198 0.174877 -0.617504
2010-11-08 07:11:08 51°13.664 2°55.959 17.3726 0.03198 0.17488 -0.652328
2010-11-08 07:11:13 51°13.664 2°55.959 17.3736 0.03198 0.174882 -0.652328
2010-11-08 07:11:17 51°13.664 2°55.959 17.3744 0.03198 0.174882 -0.652328
2010-11-08 07:11:22 51°13.663 2°55.959 17.3754 0.03198 0.174885 -0.652328
2010-11-08 07:11:28 51°13.664 2°55.959 17.3742 0.03198 0.174885 -0.652328
2010-11-08 07:11:33 51°13.664 2°55.959 17.3697 0.03198 0.174891 -0.652328
2010-11-08 07:11:37 51°13.664 2°55.959 17.3668 0.03198 0.174891 -0.652328
2010-11-08 07:11:43 51°13.664 2°55.959 17.3661 0.03198 0.174893 -0.617504
2010-11-08 07:11:47 51°13.664 2°55.958 17.3686 0.03198 0.174893 -0.617504
2010-11-08 07:11:52 51°13.664 2°55.959 17.3718 0.03198 0.174896 -0.652328
2010-11-08 07:11:57 51°13.664 2°55.959 17.3732 0.03198 0.174902 -0.652328
2010-11-08 07:12:02 51°13.664 2°55.959 17.3736 0.03198 0.174902 -0.652328
2010-11-08 07:12:07 51°13.664 2°55.958 17.3746 0.03198 0.174902 -0.652328
2010-11-08 07:12:12 51°13.664 2°55.959 17.3732 0.03198 0.174907 -0.617504
2010-11-08 07:12:17 51°13.664 2°55.959 17.3706 0.03198 0.174907 -0.617504
2010-11-08 07:12:22 51°13.664 2°55.959 17.3717 0.03198 0.174907 -0.652328
2010-11-08 07:12:27 51°13.664 2°55.959 17.372 0.03198 0.17491 -0.617504
2010-11-08 07:12:32 51°13.664 2°55.959 17.3705 0.03198 0.174915 -0.652328
2010-11-08 07:12:37 51°13.665 2°55.958 17.3694 0.03198 0.174915 -0.617504
2010-11-08 07:12:41 51°13.664 2°55.958 17.3715 0.03198 0.174918 -0.652328
2010-11-08 07:12:48 51°13.665 2°55.958 17.364 0.03198 0.174918 -0.652328
2010-11-08 07:12:53 51°13.665 2°55.958 17.3605 0.03198 0.174918 -0.652328
2010-11-08 07:12:58 51°13.664 2°55.958 17.3636 0.03198 0.174924 -0.652328
2010-11-08 07:13:02 51°13.664 2°55.958 17.3661 0.03198 0.174924 -0.617504
2010-11-08 07:13:08 51°13.664 2°55.959 17.3646 0.03198 0.174926 -0.687152
2010-11-08 07:13:13 51°13.665 2°55.958 17.37 0.03198 0.174932 -0.652328
2010-11-08 07:13:18 51°13.664 2°55.958 17.3699 0.03198 0.174932 -0.652328
2010-11-08 07:13:22 51°13.664 2°55.958 17.3669 0.03198 0.174929 -0.652328
2010-11-08 07:13:28 51°13.665 2°55.958 17.3676 0.03198 0.174935 -0.652328
2010-11-08 07:13:33 51°13.665 2°55.959 17.3699 0.03198 0.174937 -0.652328
2010-11-08 07:13:38 51°13.665 2°55.959 17.3752 0.03198 0.17494 -0.652328
2010-11-08 07:13:42 51°13.664 2°55.958 17.3744 0.03198 0.174943 -0.652328
2010-11-08 07:13:48 51°13.664 2°55.959 17.3728 0.03198 0.174943 -0.652328
2010-11-08 07:13:53 51°13.664 2°55.959 17.37 0.03198 0.174943 -0.652328
2010-11-08 07:13:58 51°13.664 2°55.959 17.3729 0.03198 0.174946 -0.617504
2010-11-08 07:14:02 51°13.664 2°55.959 17.375 0.03198 0.174948 -0.652328
2010-11-08 07:14:08 51°13.664 2°55.959 17.3743 0.03198 0.174951 -0.617504
2010-11-08 07:14:13 51°13.664 2°55.959 17.3717 0.03198 0.174951 -0.652328
2010-11-08 07:14:18 51°13.664 2°55.959 17.3687 0.03198 0.174951 -0.652328
2010-11-08 07:14:22 51°13.664 2°55.959 17.3688 0.03198 0.174956 -0.617504
2010-11-08 07:14:27 51°13.664 2°55.958 17.3779 0.03198 0.174956 -0.652328
2010-11-08 07:14:33 51°13.664 2°55.959 17.3647 0.03198 0.174959 -0.652328
2010-11-08 07:14:38 51°13.664 2°55.959 17.3713 0.03198 0.174962 -0.652328
2010-11-08 07:14:42 51°13.664 2°55.959 17.3743 0.03198 0.174965 -0.617504
2010-11-08 07:14:48 51°13.664 2°55.959 17.3736 0.03198 0.174965 -0.617504
2010-11-08 07:14:53 51°13.664 2°55.959 17.3723 0.03198 0.174967 -0.652328
2010-11-08 07:14:58 51°13.664 2°55.959 17.3693 0.03198 0.17497 -0.652328
2010-11-08 07:15:02 51°13.664 2°55.959 17.368 0.03198 0.174973 -0.652328
2010-11-08 07:15:08 51°13.664 2°55.959 17.3697 0.03198 0.174973 -0.652328
2010-11-08 07:15:13 51°13.664 2°55.959 17.371 0.03198 0.174976 -0.652328
2010-11-08 07:15:18 51°13.664 2°55.959 17.3714 0.03198 0.174976 -0.652328
2010-11-08 07:15:22 51°13.664 2°55.959 17.3712 0.03198 0.174981 -0.652328
2010-11-08 07:15:27 51°13.664 2°55.959 17.3697 0.03198 0.174984 -0.652328
2010-11-08 07:15:33 51°13.664 2°55.958 17.361 0.03198 0.174984 -0.617504
2010-11-08 07:15:38 51°13.664 2°55.958 17.3584 0.03198 0.174987 -0.617504
2010-11-08 07:15:42 51°13.664 2°55.959 17.3572 0.03198 0.174987 -0.617504
2010-11-08 07:15:48 51°13.664 2°55.959 17.3595 0.03198 0.174987 -0.617504
2010-11-08 07:15:53 51°13.664 2°55.958 17.3481 0.03198 0.174989 -0.617504
2010-11-08 07:15:58 51°13.664 2°55.959 17.3329 0.03198 0.174995 -0.687152
2010-11-08 07:16:02 51°13.664 2°55.958 17.3394 0.03198 0.174995 -0.652328
2010-11-08 07:16:08 51°13.664 2°55.959 17.3411 0.03198 0.174998 -0.652328
2010-11-08 07:16:13 51°13.664 2°55.958 17.3381 0.03198 0.175 -0.652328
2010-11-08 07:16:18 51°13.664 2°55.959 17.3319 0.03198 0.175 -0.652328
2010-11-08 07:16:22 51°13.664 2°55.959 17.3285 0.03198 0.175 -0.652328
2010-11-08 07:16:27 51°13.664 2°55.959 17.3369 0.03198 0.175006 -0.617504
2010-11-08 07:16:33 51°13.664 2°55.959 17.3433 0.03198 0.175006 -0.652328
2010-11-08 07:16:38 51°13.664 2°55.959 17.349 0.03198 0.175009 -0.617504
2010-11-08 07:16:43 51°13.664 2°55.959 17.3503 0.03198 0.175011 -0.617504
2010-11-08 07:16:48 51°13.664 2°55.959 17.3539 0.03198 0.175011 -0.617504
2010-11-08 07:16:53 51°13.664 2°55.959 17.3568 0.03198 0.175014 -0.687152
2010-11-08 07:16:58 51°13.664 2°55.959 17.3591 0.03198 0.175017 -0.652328
2010-11-08 07:17:03 51°13.664 2°55.959 17.3601 0.03198 0.17502 -0.652328
2010-11-08 07:17:08 51°13.664 2°55.96 17.3616 0.03198 0.175022 -0.652328
2010-11-08 07:17:13 51°13.664 2°55.959 17.357 0.03198 0.175022 -0.652328
2010-11-08 07:17:18 51°13.664 2°55.96 17.3078 0.03198 0.175022 -0.652328
2010-11-08 07:17:22 51°13.664 2°55.96 17.2961 0.03198 0.175028 -0.652328
2010-11-08 07:17:28 51°13.664 2°55.96 17.2531 0.03198 0.175031 -0.652328
2010-11-08 07:17:33 51°13.664 2°55.96 17.2474 0.03198 0.175031 -0.652328
2010-11-08 07:17:38 51°13.664 2°55.96 17.2401 0.03198 0.175031 -0.652328
2010-11-08 07:17:43 51°13.664 2°55.96 17.2326 0.03198 0.175031 -0.652328
2010-11-08 07:17:48 51°13.664 2°55.96 17.2269 0.03198 0.175031 -0.652328
2010-11-08 07:17:53 51°13.664 2°55.96 17.2194 0.03198 0.175036 -0.652328
2010-11-08 07:17:58 51°13.664 2°55.96 17.225 0.03198 0.175042 -0.652328
2010-11-08 07:18:02 51°13.664 2°55.96 17.224 0.03198 0.175042 -0.652328
2010-11-08 07:18:08 51°13.664 2°55.96 17.2294 0.03198 0.175042 -0.652328
2010-11-08 07:18:13 51°13.664 2°55.96 17.2338 0.03198 0.175044 -0.617504
2010-11-08 07:18:18 51°13.663 2°55.961 17.2296 0.03198 0.175044 -0.617504
2010-11-08 07:18:22 51°13.663 2°55.961 17.2319 0.03198 0.175047 -0.617504
2010-11-08 07:18:28 51°13.663 2°55.96 17.2362 0.03198 0.17505 -0.652328
2010-11-08 07:18:33 51°13.664 2°55.96 17.2328 0.03198 0.175053 -0.652328
2010-11-08 07:18:38 51°13.663 2°55.96 17.239 0.03198 0.175055 -0.617504
2010-11-08 07:18:42 51°13.663 2°55.96 17.2452 0.03198 0.175058 -0.652328
2010-11-08 07:18:48 51°13.663 2°55.96 17.2473 0.03198 0.175058 -0.652328
2010-11-08 07:18:53 51°13.663 2°55.961 17.2536 0.03198 0.175061 -0.652328
2010-11-08 07:18:58 51°13.663 2°55.961 17.2559 0.03198 0.175064 -0.652328
2010-11-08 07:19:02 51°13.663 2°55.961 17.2639 0.03198 0.175064 -0.652328
2010-11-08 07:19:07 51°13.664 2°55.96 17.2653 0.03198 0.175066 -0.652328
2010-11-08 07:19:12 51°13.664 2°55.96 17.2642 0.03198 0.175069 -0.652328
2010-11-08 07:19:17 51°13.663 2°55.961 17.2691 0.03198 0.175069 -0.652328
2010-11-08 07:19:22 51°13.663 2°55.961 17.2628 0.03198 0.175072 -0.617504
2010-11-08 07:19:27 51°13.663 2°55.961 17.2597 0.03198 0.175075 -0.652328
2010-11-08 07:19:33 51°13.663 2°55.961 17.2644 0.03198 0.175077 -0.652328
2010-11-08 07:19:38 51°13.663 2°55.961 17.2689 0.03198 0.17508 -0.652328
2010-11-08 07:19:43 51°13.664 2°55.961 17.2683 0.03198 0.175083 -0.687152
2010-11-08 07:19:48 51°13.664 2°55.961 17.2835 0.03198 0.175083 -0.687152
2010-11-08 07:19:53 51°13.664 2°55.961 17.2994 0.03198 0.175086 -0.652328
2010-11-08 07:19:58 51°13.664 2°55.961 17.3124 0.03198 0.175088 -0.652328
2010-11-08 07:20:03 51°13.663 2°55.961 17.3266 0.03198 0.175091 -0.652328
2010-11-08 07:20:07 51°13.663 2°55.961 17.3272 0.03198 0.175094 -0.652328
2010-11-08 07:20:13 51°13.663 2°55.961 17.3311 0.03198 0.175094 -0.617504
2010-11-08 07:20:19 51°13.663 2°55.961 17.335 0.03198 0.175094 -0.617504
2010-11-08 07:20:24 51°13.663 2°55.961 17.3362 0.03198 0.175097 -0.652328
2010-11-08 07:20:29 51°13.663 2°55.961 17.3353 0.03198 0.175102 -0.652328
2010-11-08 07:20:34 51°13.663 2°55.961 17.3361 0.03198 0.175102 -0.652328
2010-11-08 07:20:39 51°13.663 2°55.961 17.3316 0.03198 0.175105 -0.652328
2010-11-08 07:20:43 51°13.663 2°55.961 17.3274 0.03198 0.175108 -0.652328
2010-11-08 07:20:48 51°13.663 2°55.961 17.3253 0.03198 0.175108 -0.652328
2010-11-08 07:20:53 51°13.663 2°55.961 17.325 0.03198 0.17511 -0.652328
2010-11-08 07:20:58 51°13.663 2°55.961 17.3251 0.03198 0.175113 -0.652328
2010-11-08 07:21:03 51°13.663 2°55.961 17.325 0.03198 0.175113 -0.652328
2010-11-08 07:21:07 51°13.663 2°55.961 17.3242 0.03198 0.175116 -0.617504
2010-11-08 07:21:13 51°13.663 2°55.961 17.3176 0.03198 0.175119 -0.617504
2010-11-08 07:21:18 51°13.663 2°55.961 17.3175 0.03198 0.175119 -0.617504
2010-11-08 07:21:23 51°13.663 2°55.961 17.3182 0.03198 0.175121 -0.652328
2010-11-08 07:21:27 51°13.663 2°55.961 17.3156 0.03198 0.175124 -0.617504
2010-11-08 07:21:33 51°13.663 2°55.961 17.3171 0.03198 0.175127 -0.652328
2010-11-08 07:21:38 51°13.662 2°55.961 17.32 0.03198 0.175127 -0.617504
2010-11-08 07:21:43 51°13.662 2°55.961 17.3263 0.03198 0.17513 -0.652328
2010-11-08 07:21:47 51°13.662 2°55.961 17.3274 0.03198 0.17513 -0.652328
2010-11-08 07:21:53 51°13.662 2°55.961 17.3207 0.03198 0.175132 -0.652328
2010-11-08 07:21:57 51°13.662 2°55.961 17.3228 0.03198 0.175135 -0.652328
2010-11-08 07:22:03 51°13.662 2°55.961 17.3202 0.03198 0.175138 -0.652328
2010-11-08 07:22:07 51°13.662 2°55.961 17.3174 0.03198 0.175141 -0.617504
2010-11-08 07:22:13 51°13.662 2°55.961 17.317 0.03198 0.175143 -0.652328
2010-11-08 07:22:18 51°13.662 2°55.961 17.3187 0.03198 0.175143 -0.652328
2010-11-08 07:22:23 51°13.662 2°55.96 17.3161 0.03198 0.175146 -0.617504
2010-11-08 07:22:27 51°13.662 2°55.961 17.3142 0.03198 0.175146 -0.652328
2010-11-08 07:22:33 51°13.662 2°55.961 17.3194 0.03198 0.175149 -0.617504
2010-11-08 07:22:38 51°13.662 2°55.96 17.3235 0.03198 0.175154 -0.652328
2010-11-08 07:22:43 51°13.662 2°55.96 17.3204 0.03198 0.175157 -0.652328
2010-11-08 07:22:47 51°13.662 2°55.961 17.3259 0.03198 0.175157 -0.652328
2010-11-08 07:22:53 51°13.662 2°55.961 17.3274 0.03198 0.17516 -0.652328
2010-11-08 07:22:58 51°13.662 2°55.961 17.3275 0.03198 0.175157 -0.652328
2010-11-08 07:23:03 51°13.662 2°55.961 17.3279 0.03198 0.175163 -0.652328
2010-11-08 07:23:07 51°13.662 2°55.961 17.3301 0.03198 0.175165 -0.652328
2010-11-08 07:23:12 51°13.662 2°55.961 17.328 0.03198 0.175168 -0.652328
2010-11-08 07:23:18 51°13.662 2°55.96 17.3352 0.03198 0.175168 -0.652328
2010-11-08 07:23:23 51°13.662 2°55.96 17.3388 0.03198 0.175168 -0.617504
2010-11-08 07:23:27 51°13.662 2°55.961 17.3362 0.03198 0.175171 -0.617504
2010-11-08 07:23:33 51°13.662 2°55.961 17.3392 0.03198 0.175174 -0.617504
2010-11-08 07:23:38 51°13.662 2°55.961 17.3447 0.03198 0.175179 -0.617504
2010-11-08 07:23:43 51°13.662 2°55.961 17.3491 0.03198 0.175179 -0.617504
2010-11-08 07:23:47 51°13.662 2°55.961 17.3525 0.03198 0.175179 -0.617504
2010-11-08 07:23:52 51°13.662 2°55.961 17.3541 0.03198 0.175182 -0.652328
2010-11-08 07:23:57 51°13.662 2°55.961 17.3583 0.03198 0.175185 -0.652328
2010-11-08 07:24:03 51°13.662 2°55.961 17.3596 0.03198 0.175187 -0.687152
2010-11-08 07:24:07 51°13.662 2°55.961 17.3601 0.03198 0.175187 -0.687152
2010-11-08 07:24:12 51°13.662 2°55.961 17.3619 0.03198 0.175193 -0.617504
2010-11-08 07:24:17 51°13.662 2°55.961 17.3632 0.03198 0.175193 -0.617504
2010-11-08 07:24:22 51°13.662 2°55.96 17.3633 0.03198 0.175193 -0.652328
2010-11-08 07:24:27 51°13.662 2°55.96 17.3604 0.03198 0.175196 -0.652328
2010-11-08 07:24:32 51°13.662 2°55.961 17.3581 0.03198 0.175201 -0.652328
2010-11-08 07:24:37 51°13.662 2°55.961 17.3611 0.03198 0.175201 -0.652328
2010-11-08 07:24:42 51°13.662 2°55.961 17.356 0.03198 0.175204 -0.652328
2010-11-08 07:24:47 51°13.662 2°55.961 17.3514 0.03198 0.175204 -0.652328
2010-11-08 07:24:51 51°13.662 2°55.961 17.3442 0.03198 0.175204 -0.652328
2010-11-08 07:24:57 51°13.662 2°55.96 17.3468 0.03198 0.175207 -0.652328
2010-11-08 07:25:02 51°13.662 2°55.961 17.3515 0.03198 0.175209 -0.652328
2010-11-08 07:25:07 51°13.662 2°55.961 17.3494 0.03198 0.175212 -0.617504
2010-11-08 07:25:11 51°13.662 2°55.961 17.3513 0.03198 0.175215 -0.652328
2010-11-08 07:25:17 51°13.662 2°55.96 17.3531 0.03198 0.175215 -0.652328
2010-11-08 07:25:22 51°13.662 2°55.96 17.3533 0.03198 0.175215 -0.652328
2010-11-08 07:25:27 51°13.662 2°55.961 17.3549 0.03198 0.175218 -0.652328
2010-11-08 07:25:31 51°13.662 2°55.961 17.3564 0.03198 0.17522 -0.652328
2010-11-08 07:25:37 51°13.662 2°55.96 17.3553 0.03198 0.175226 -0.652328
2010-11-08 07:25:42 51°13.662 2°55.961 17.3573 0.03198 0.175229 -0.652328
2010-11-08 07:25:47 51°13.662 2°55.961 17.3448 0.03198 0.175229 -0.652328
2010-11-08 07:25:52 51°13.662 2°55.961 17.3322 0.03198 0.175229 -0.652328
2010-11-08 07:25:57 51°13.662 2°55.961 17.3364 0.03198 0.175231 -0.617504
2010-11-08 07:26:02 51°13.662 2°55.961 17.3387 0.03198 0.175237 -0.617504
2010-11-08 07:26:07 51°13.662 2°55.961 17.3412 0.03198 0.175237 -0.617504
2010-11-08 07:26:11 51°13.662 2°55.961 17.3447 0.031876 0.174664 -0.687152
2010-11-08 07:26:17 51°13.662 2°55.961 17.3481 0.031876 0.174664 -0.687152
2010-11-08 07:26:22 51°13.662 2°55.961 17.3487 0.03198 0.175242 -0.617504
2010-11-08 07:26:27 51°13.662 2°55.961 17.3464 0.03198 0.175245 -0.652328
2010-11-08 07:26:32 51°13.662 2°55.961 17.351 0.03198 0.175248 -0.617504
2010-11-08 07:26:37 51°13.662 2°55.961 17.3539 0.031876 0.174675 -0.652328
2010-11-08 07:26:42 51°13.662 2°55.961 17.3569 0.03198 0.175248 -0.652328
2010-11-08 07:26:47 51°13.662 2°55.961 17.3601 0.03198 0.175248 -0.652328
2010-11-08 07:26:52 51°13.662 2°55.961 17.362 0.031876 0.174678 -0.687152
2010-11-08 07:26:57 51°13.662 2°55.961 17.3644 0.03198 0.175256 -0.652328
2010-11-08 07:27:02 51°13.661 2°55.961 17.3655 0.03198 0.175256 -0.652328
2010-11-08 07:27:07 51°13.661 2°55.961 17.3671 0.031876 0.174684 -0.652328
2010-11-08 07:27:11 51°13.661 2°55.961 17.3666 0.03198 0.175265 -0.652328
2010-11-08 07:27:17 51°13.661 2°55.96 17.3671 0.03198 0.175265 -0.652328
2010-11-08 07:27:22 51°13.661 2°55.96 17.3672 0.03198 0.175267 -0.617504
2010-11-08 07:27:27 51°13.661 2°55.961 17.3676 0.03198 0.175267 -0.652328
2010-11-08 07:27:32 51°13.661 2°55.961 17.3684 0.031876 0.174695 -0.652328
2010-11-08 07:27:37 51°13.661 2°55.96 17.3643 0.03198 0.175273 -0.652328
2010-11-08 07:27:42 51°13.661 2°55.96 17.364 0.03198 0.175276 -0.652328
2010-11-08 07:27:47 51°13.661 2°55.96 17.3633 0.03198 0.175276 -0.652328
2010-11-08 07:27:51 51°13.661 2°55.96 17.3626 0.031876 0.174697 -0.652328
2010-11-08 07:27:57 51°13.661 2°55.96 17.3252 0.031876 0.174706 -0.617504
2010-11-08 07:28:03 51°13.661 2°55.96 17.2343 0.031876 0.174706 -0.652328
2010-11-08 07:28:07 51°13.661 2°55.959 17.2536 0.031876 0.174708 -0.652328
2010-11-08 07:28:11 51°13.661 2°55.958 17.1526 0.031876 0.174711 -0.617504
2010-11-08 07:28:17 51°13.662 2°55.955 17.2749 0.031876 0.174711 -0.617504
2010-11-08 07:28:22 51°13.663 2°55.952 17.2613 0.031876 0.174714 -0.617504
2010-11-08 07:28:27 51°13.664 2°55.947 17.3161 0.031876 0.174717 -0.652328
2010-11-08 07:28:33 51°13.666 2°55.94 17.2984 0.031876 0.174717 -0.652328
2010-11-08 07:28:39 51°13.668 2°55.932 17.3298 0.031876 0.174722 -0.652328
2010-11-08 07:28:44 51°13.67 2°55.925 17.3293 0.031876 0.174722 -0.687152
2010-11-08 07:28:50 51°13.672 2°55.916 17.3243 0.031876 0.174722 -0.687152
2010-11-08 07:28:55 51°13.674 2°55.908 17.3315 0.03198 0.1753 -0.652328
2010-11-08 07:29:01 51°13.677 2°55.897 17.3197 0.031876 0.174728 -0.652328
2010-11-08 07:29:06 51°13.679 2°55.888 17.3275 0.031876 0.17473 -0.652328
2010-11-08 07:29:10 51°13.68 2°55.881 17.3402 0.031876 0.17473 -0.652328
2010-11-08 07:29:15 51°13.682 2°55.871 17.3195 0.031876 0.174736 -0.652328
2010-11-08 07:29:21 51°13.684 2°55.858 17.3308 0.031876 0.174736 -0.652328
2010-11-08 07:29:26 51°13.685 2°55.847 17.3215 0.03198 0.175314 -0.652328
2010-11-08 07:29:31 51°13.686 2°55.836 17.3271 0.031876 0.174739 -0.617504
2010-11-08 07:29:35 51°13.687 2°55.827 17.3394 0.031876 0.174741 -0.652328
2010-11-08 07:29:41 51°13.687 2°55.815 17.3341 0.031876 0.174744 -0.652328
2010-11-08 07:29:46 51°13.688 2°55.803 17.3359 0.031876 0.174747 -0.652328
2010-11-08 07:29:51 51°13.688 2°55.793 17.3431 0.031876 0.174747 -0.652328
2010-11-08 07:29:55 51°13.688 2°55.785 17.3492 0.031876 0.174747 -0.652328
2010-11-08 07:30:01 51°13.687 2°55.773 17.3564 0.031876 0.17475 -0.617504
2010-11-08 07:30:06 51°13.687 2°55.763 17.3513 0.031876 0.174752 -0.652328
2010-11-08 07:30:11 51°13.687 2°55.755 17.329 0.031876 0.174752 -0.652328
2010-11-08 07:30:15 51°13.687 2°55.749 17.3693 0.031876 0.174755 -0.652328
2010-11-08 07:30:20 51°13.687 2°55.743 17.3601 0.031876 0.174755 -0.652328
2010-11-08 07:30:25 51°13.687 2°55.74 17.3896 0.031876 0.174758 -0.652328
2010-11-08 07:30:30 51°13.687 2°55.737 17.4048 0.031876 0.174758 -0.652328
2010-11-08 07:30:35 51°13.688 2°55.736 17.4279 0.031876 0.174766 -0.652328
2010-11-08 07:30:39 51°13.688 2°55.735 17.4132 0.031876 0.174769 -0.617504
2010-11-08 07:30:44 51°13.69 2°55.735 17.4165 0.031876 0.174777 -0.652328
2010-11-08 07:30:49 51°13.691 2°55.735 17.4243 0.031876 0.174777 -0.652328
2010-11-08 07:30:54 51°13.694 2°55.736 17.4323 0.031876 0.17478 -0.687152
2010-11-08 07:30:59 51°13.696 2°55.736 17.4411 0.031876 0.174783 -0.652328
2010-11-08 07:31:03 51°13.698 2°55.737 17.4466 0.031876 0.174785 -0.652328
2010-11-08 07:31:08 51°13.702 2°55.737 17.449 0.031876 0.174791 -0.617504
2010-11-08 07:31:13 51°13.705 2°55.736 17.4505 0.031876 0.174794 -0.652328
2010-11-08 07:31:18 51°13.709 2°55.735 17.4456 0.031876 0.174794 -0.652328
2010-11-08 07:31:23 51°13.713 2°55.734 17.4373 0.031876 0.174794 -0.652328
2010-11-08 07:31:27 51°13.717 2°55.733 17.4381 0.031876 0.174794 -0.617504
2010-11-08 07:31:31 51°13.722 2°55.731 17.4335 0.031876 0.174791 -0.617504
2010-11-08 07:31:37 51°13.728 2°55.728 17.3858 0.031876 0.174794 -0.617504
2010-11-08 07:31:42 51°13.735 2°55.724 17.3485 0.031876 0.174794 -0.652328
2010-11-08 07:31:47 51°13.742 2°55.719 17.3274 0.031876 0.174794 -0.652328
2010-11-08 07:31:52 51°13.75 2°55.714 17.3264 0.031876 0.174791 -0.617504
2010-11-08 07:31:57 51°13.757 2°55.708 17.3227 0.031876 0.174791 -0.652328
2010-11-08 07:32:02 51°13.766 2°55.701 17.3097 0.031876 0.174794 -0.652328
2010-11-08 07:32:07 51°13.774 2°55.693 17.3055 0.031876 0.174796 -0.652328
2010-11-08 07:32:13 51°13.785 2°55.684 17.2722 0.031876 0.174799 -0.652328
2010-11-08 07:32:18 51°13.795 2°55.675 17.2434 0.031876 0.174799 -0.652328
2010-11-08 07:32:23 51°13.805 2°55.667 17.2392 0.031876 0.174805 -0.687152
2010-11-08 07:32:27 51°13.813 2°55.659 17.1536 0.031876 0.17481 -0.652328
2010-11-08 07:32:32 51°13.824 2°55.651 17.1424 0.031876 0.17481 -0.652328
2010-11-08 07:32:37 51°13.835 2°55.641 17.1859 0.031876 0.174813 -0.652328
2010-11-08 07:32:42 51°13.847 2°55.632 17.2121 0.031876 0.174816 -0.652328
2010-11-08 07:32:47 51°13.858 2°55.623 17.175 0.031876 0.174816 -0.652328
2010-11-08 07:32:51 51°13.868 2°55.616 17.0146 0.031876 0.174818 -0.652328
2010-11-08 07:32:57 51°13.882 2°55.604 17.1343 0.031876 0.174824 -0.652328
2010-11-08 07:33:02 51°13.895 2°55.596 17.1587 0.031876 0.174824 -0.617504
2010-11-08 07:33:07 51°13.907 2°55.586 17.2065 0.031876 0.174829 -0.652328
2010-11-08 07:33:11 51°13.917 2°55.579 17.1647 0.031876 0.174832 -0.652328
2010-11-08 07:33:17 51°13.932 2°55.568 17.298 0.031876 0.174832 -0.652328
2010-11-08 07:33:22 51°13.945 2°55.559 17.1736 0.031876 0.174835 -0.652328
2010-11-08 07:33:27 51°13.956 2°55.549 17.2141 0.031876 0.17484 -0.652328
2010-11-08 07:33:31 51°13.966 2°55.542 17.2025 0.031876 0.174843 -0.652328
2010-11-08 07:33:37 51°13.981 2°55.53 17.2539 0.031876 0.174849 -0.617504
2010-11-08 07:33:43 51°13.996 2°55.518 17.2174 0.031876 0.174849 -0.652328
2010-11-08 07:33:47 51°14.005 2°55.509 17.2813 0.031876 0.174849 -0.652328
2010-11-08 07:33:52 51°14.018 2°55.5 17.2438 0.031876 0.174851 -0.617504
2010-11-08 07:33:57 51°14.03 2°55.489 17.2254 0.031876 0.174854 -0.652328
2010-11-08 07:34:02 51°14.042 2°55.479 17.2653 0.031876 0.174857 -0.617504
2010-11-08 07:34:07 51°14.055 2°55.468 17.1779 0.031876 0.17486 -0.652328
2010-11-08 07:34:12 51°14.067 2°55.458 17.1258 0.031876 0.174865 -0.652328
2010-11-08 07:34:17 51°14.08 2°55.448 17.1596 0.031876 0.174865 -0.652328
2010-11-08 07:34:22 51°14.093 2°55.438 17.2329 0.031876 0.174862 -0.652328
2010-11-08 07:34:27 51°14.106 2°55.428 17.232 0.031876 0.174865 -0.652328
2010-11-08 07:34:31 51°14.116 2°55.42 17.2071 0.031876 0.174871 -0.652328
2010-11-08 07:34:37 51°14.131 2°55.408 17.2547 0.031876 0.174876 -0.617504
2010-11-08 07:34:42 51°14.145 2°55.398 17.3271 0.031876 0.174876 -0.652328
2010-11-08 07:34:47 51°14.158 2°55.387 17.2596 0.031876 0.174876 -0.652328
2010-11-08 07:34:53 51°14.173 2°55.375 17.3369 0.031876 0.174882 -0.687152
2010-11-08 07:34:59 51°14.189 2°55.361 17.3176 0.031876 0.174882 -0.652328
2010-11-08 07:35:04 51°14.202 2°55.35 17.314 0.031876 0.174887 -0.652328
2010-11-08 07:35:10 51°14.217 2°55.335 17.2765 0.031876 0.17489 -0.652328
2010-11-08 07:35:15 51°14.229 2°55.323 17.2985 0.031876 0.174895 -0.617504
2010-11-08 07:35:20 51°14.242 2°55.311 17.337 0.031876 0.174895 -0.617504
2010-11-08 07:35:26 51°14.257 2°55.296 17.2681 0.031876 0.174895 -0.652328
2010-11-08 07:35:31 51°14.27 2°55.283 17.2606 0.031876 0.174898 -0.652328
2010-11-08 07:35:35 51°14.28 2°55.273 17.2757 0.031876 0.174898 -0.652328
2010-11-08 07:35:41 51°14.295 2°55.257 17.2708 0.031876 0.174898 -0.652328
2010-11-08 07:35:45 51°14.306 2°55.247 17.1862 0.031876 0.174904 -0.617504
2010-11-08 07:35:50 51°14.319 2°55.234 17.2849 0.031876 0.174904 -0.617504
2010-11-08 07:35:55 51°14.331 2°55.221 17.1602 0.031876 0.174906 -0.617504
2010-11-08 07:36:00 51°14.345 2°55.207 17.218 0.031876 0.174912 -0.652328
2010-11-08 07:36:05 51°14.358 2°55.194 17.1518 0.031876 0.174912 -0.617504
2010-11-08 07:36:10 51°14.371 2°55.181 17.1428 0.031876 0.174915 -0.617504
2010-11-08 07:36:15 51°14.385 2°55.168 17.244 0.031876 0.174917 -0.652328
2010-11-08 07:36:19 51°14.396 2°55.158 17.1878 0.031876 0.174917 -0.652328
2010-11-08 07:36:24 51°14.41 2°55.145 17.1303 0.031876 0.174917 -0.652328
2010-11-08 07:36:29 51°14.424 2°55.133 17.2104 0.031876 0.174923 -0.652328
2010-11-08 07:36:34 51°14.439 2°55.12 17.2384 0.031876 0.174926 -0.652328
2010-11-08 07:36:39 51°14.453 2°55.107 17.1492 0.031876 0.174928 -0.652328
2010-11-08 07:36:43 51°14.464 2°55.097 17.2627 0.031876 0.174934 -0.652328
2010-11-08 07:36:48 51°14.478 2°55.083 17.2401 0.031876 0.174934 -0.652328
2010-11-08 07:36:53 51°14.493 2°55.07 17.2587 0.031876 0.174937 -0.652328
2010-11-08 07:36:58 51°14.508 2°55.057 17.3008 0.031876 0.17494 -0.652328
2010-11-08 07:37:03 51°14.522 2°55.043 17.3221 0.031876 0.17494 -0.687152
2010-11-08 07:37:07 51°14.532 2°55.029 17.3667 0.031876 0.174951 -0.617504
2010-11-08 07:37:12 51°14.546 2°55.013 17.3567 0.031876 0.174953 -0.652328
2010-11-08 07:37:17 51°14.558 2°54.994 17.2609 0.031876 0.174953 -0.652328
2010-11-08 07:37:22 51°14.57 2°54.974 17.3488 0.031876 0.174962 -0.652328
2010-11-08 07:37:27 51°14.582 2°54.954 17.2648 0.031876 0.174962 -0.652328
2010-11-08 07:37:31 51°14.59 2°54.936 17.2549 0.031876 0.174962 -0.687152
2010-11-08 07:37:37 51°14.602 2°54.908 17.3681 0.031876 0.174967 -0.652328
2010-11-08 07:37:42 51°14.611 2°54.884 17.3951 0.031876 0.174964 -0.652328
2010-11-08 07:37:47 51°14.62 2°54.86 17.3581 0.031876 0.174964 -0.652328
2010-11-08 07:37:52 51°14.627 2°54.834 17.3644 0.031876 0.17497 -0.652328
2010-11-08 07:37:57 51°14.633 2°54.807 17.3517 0.031876 0.174975 -0.652328
2010-11-08 07:38:02 51°14.637 2°54.78 17.3712 0.031876 0.174981 -0.617504
2010-11-08 07:38:07 51°14.64 2°54.752 17.3617 0.031876 0.174986 -0.617504
2010-11-08 07:38:11 51°14.641 2°54.729 17.358 0.031876 0.174989 -0.652328
2010-11-08 07:38:17 51°14.641 2°54.695 17.3562 0.031876 0.174989 -0.652328
2010-11-08 07:38:22 51°14.64 2°54.666 17.3865 0.031876 0.174992 -0.652328
2010-11-08 07:38:27 51°14.637 2°54.638 17.3872 0.031876 0.174995 -0.652328
2010-11-08 07:38:31 51°14.633 2°54.616 17.3571 0.031876 0.175 -0.652328
2010-11-08 07:38:37 51°14.627 2°54.583 17.3615 0.031876 0.174997 -0.652328
2010-11-08 07:38:42 51°14.619 2°54.558 17.2685 0.031876 0.175 -0.652328
2010-11-08 07:38:47 51°14.61 2°54.533 17.1219 0.031876 0.175 -0.652328
2010-11-08 07:38:51 51°14.603 2°54.513 17.1574 0.031876 0.175003 -0.652328
2010-11-08 07:38:57 51°14.591 2°54.484 17.1995 0.031876 0.175006 -0.652328
2010-11-08 07:39:02 51°14.581 2°54.46 17.2466 0.031876 0.175 -0.617504
2010-11-08 07:39:07 51°14.57 2°54.436 17.2709 0.031876 0.174997 -0.617504
2010-11-08 07:39:11 51°14.561 2°54.417 17.2042 0.031876 0.175003 -0.617504
2010-11-08 07:39:17 51°14.548 2°54.389 17.1832 0.031876 0.175003 -0.617504
2010-11-08 07:39:22 51°14.536 2°54.367 17.1157 0.031876 0.175006 -0.652328
2010-11-08 07:39:27 51°14.523 2°54.344 17.241 0.031876 0.175006 -0.617504
2010-11-08 07:39:31 51°14.514 2°54.326 17.1299 0.031876 0.175008 -0.617504
2010-11-08 07:39:37 51°14.5 2°54.298 17.25 0.031876 0.175011 -0.652328
2010-11-08 07:39:42 51°14.489 2°54.274 17.2373 0.031876 0.175019 -0.652328
2010-11-08 07:39:47 51°14.477 2°54.251 17.213 0.031876 0.175019 -0.652328
2010-11-08 07:39:52 51°14.464 2°54.229 17.1849 0.031876 0.175014 -0.652328
2010-11-08 07:39:57 51°14.452 2°54.205 17.1319 0.031876 0.175025 -0.617504
2010-11-08 07:40:02 51°14.44 2°54.183 17.1437 0.031876 0.175025 -0.652328
2010-11-08 07:40:07 51°14.429 2°54.159 17.145 0.031876 0.175031 -0.652328
2010-11-08 07:40:11 51°14.419 2°54.14 17.1609 0.031876 0.175033 -0.617504
2010-11-08 07:40:17 51°14.406 2°54.111 17.2185 0.031876 0.175033 -0.617504
2010-11-08 07:40:22 51°14.395 2°54.087 17.1947 0.031876 0.175036 -0.617504
2010-11-08 07:40:27 51°14.384 2°54.063 17.2051 0.031876 0.175039 -0.617504
2010-11-08 07:40:32 51°14.373 2°54.038 17.1919 0.031876 0.17505 -0.652328
2010-11-08 07:40:37 51°14.362 2°54.013 17.0774 0.031876 0.17505 -0.652328
2010-11-08 07:40:42 51°14.351 2°53.989 17.1457 0.031876 0.175058 -0.617504
2010-11-08 07:40:47 51°14.341 2°53.963 17.1819 0.031876 0.175058 -0.617504
2010-11-08 07:40:51 51°14.333 2°53.943 17.195 0.031876 0.175061 -0.617504
2010-11-08 07:40:57 51°14.321 2°53.912 17.1997 0.031876 0.175064 -0.652328
2010-11-08 07:41:02 51°14.311 2°53.887 17.1889 0.031876 0.175061 -0.652328
2010-11-08 07:41:07 51°14.301 2°53.86 17.2436 0.031876 0.175069 -0.652328
2010-11-08 07:41:11 51°14.294 2°53.839 17.2257 0.031876 0.175072 -0.617504
2010-11-08 07:41:17 51°14.282 2°53.808 17.2225 0.031876 0.175072 -0.617504
2010-11-08 07:41:22 51°14.272 2°53.782 17.2485 0.031876 0.17508 -0.652328
2010-11-08 07:41:27 51°14.262 2°53.756 17.2331 0.031876 0.175077 -0.652328
2010-11-08 07:41:32 51°14.253 2°53.729 17.2206 0.031876 0.175089 -0.652328
2010-11-08 07:41:37 51°14.243 2°53.703 17.2507 0.031876 0.175089 -0.617504
2010-11-08 07:41:42 51°14.232 2°53.677 17.2194 0.031876 0.175091 -0.652328
2010-11-08 07:41:47 51°14.222 2°53.651 17.2214 0.031876 0.175091 -0.652328
2010-11-08 07:41:51 51°14.214 2°53.631 17.1449 0.031876 0.175097 -0.652328
2010-11-08 07:41:57 51°14.201 2°53.6 17.2214 0.031876 0.175097 -0.617504
2010-11-08 07:42:02 51°14.191 2°53.574 17.1758 0.031876 0.175094 -0.652328
2010-11-08 07:42:07 51°14.181 2°53.548 17.2067 0.031876 0.175102 -0.652328
2010-11-08 07:42:11 51°14.172 2°53.527 17.2232 0.031876 0.175105 -0.687152
2010-11-08 07:42:17 51°14.16 2°53.496 17.2783 0.031876 0.175105 -0.687152
2010-11-08 07:42:22 51°14.15 2°53.469 17.1811 0.031876 0.175111 -0.652328
2010-11-08 07:42:27 51°14.139 2°53.444 17.2249 0.031876 0.175111 -0.617504
2010-11-08 07:42:32 51°14.129 2°53.417 17.2254 0.031876 0.175116 -0.652328
2010-11-08 07:42:37 51°14.118 2°53.391 17.222 0.031876 0.175122 -0.617504
2010-11-08 07:42:42 51°14.108 2°53.365 17.2465 0.031876 0.175124 -0.652328
2010-11-08 07:42:47 51°14.098 2°53.339 17.2426 0.031876 0.175124 -0.652328
2010-11-08 07:42:52 51°14.088 2°53.312 17.1717 0.031876 0.175127 -0.652328
2010-11-08 07:42:57 51°14.077 2°53.286 17.2617 0.031876 0.17513 -0.617504
2010-11-08 07:43:02 51°14.067 2°53.26 17.214 0.031876 0.175138 -0.652328
2010-11-08 07:43:07 51°14.056 2°53.233 17.2564 0.031876 0.175141 -0.617504
2010-11-08 07:43:11 51°14.048 2°53.212 17.2401 0.031876 0.175144 -0.652328
2010-11-08 07:43:17 51°14.035 2°53.181 17.2054 0.031876 0.175144 -0.652328
2010-11-08 07:43:22 51°14.025 2°53.154 17.233 0.031876 0.175152 -0.617504
2010-11-08 07:43:27 51°14.014 2°53.128 17.2462 0.031876 0.175155 -0.617504
2010-11-08 07:43:31 51°14.005 2°53.107 17.2439 0.031876 0.175152 -0.617504
2010-11-08 07:43:37 51°13.992 2°53.076 17.2602 0.031876 0.175158 -0.617504
2010-11-08 07:43:42 51°13.981 2°53.05 17.1741 0.031876 0.175166 -0.652328
2010-11-08 07:43:47 51°13.97 2°53.024 17.2776 0.031876 0.175166 -0.652328
2010-11-08 07:43:52 51°13.959 2°52.997 17.2197 0.031876 0.175171 -0.617504
2010-11-08 07:43:57 51°13.948 2°52.971 17.2829 0.031876 0.175174 -0.652328
2010-11-08 07:44:02 51°13.938 2°52.944 17.1837 0.031876 0.175174 -0.617504
2010-11-08 07:44:07 51°13.926 2°52.918 17.2825 0.031876 0.17518 -0.652328
2010-11-08 07:44:11 51°13.918 2°52.897 17.2634 0.031876 0.17518 -0.687152
2010-11-08 07:44:17 51°13.905 2°52.865 17.2674 0.031876 0.17518 -0.687152
2010-11-08 07:44:22 51°13.894 2°52.839 17.2703 0.031876 0.175188 -0.652328
2010-11-08 07:44:27 51°13.883 2°52.812 17.2827 0.031876 0.175194 -0.652328
2010-11-08 07:44:31 51°13.874 2°52.791 17.2667 0.031876 0.175196 -0.652328
2010-11-08 07:44:37 51°13.861 2°52.76 17.307 0.031876 0.175196 -0.687152
2010-11-08 07:44:42 51°13.85 2°52.734 17.2945 0.031876 0.175205 -0.687152
2010-11-08 07:44:47 51°13.838 2°52.708 17.2596 0.031876 0.175205 -0.687152
2010-11-08 07:44:51 51°13.829 2°52.688 17.2884 0.031876 0.175213 -0.652328
2010-11-08 07:44:57 51°13.815 2°52.658 17.1771 0.031876 0.175218 -0.652328
2010-11-08 07:45:02 51°13.802 2°52.633 17.2705 0.031876 0.175224 -0.652328
2010-11-08 07:45:07 51°13.791 2°52.607 17.185 0.031876 0.175221 -0.652328
2010-11-08 07:45:12 51°13.779 2°52.581 17.2295 0.031876 0.175224 -0.652328
2010-11-08 07:45:17 51°13.769 2°52.555 17.1493 0.031876 0.175224 -0.652328
2010-11-08 07:45:22 51°13.758 2°52.528 17.2281 0.031876 0.175224 -0.652328
2010-11-08 07:45:27 51°13.748 2°52.5 17.2059 0.031876 0.175227 -0.652328
2010-11-08 07:45:31 51°13.74 2°52.478 17.2235 0.031876 0.17523 -0.652328
2010-11-08 07:45:37 51°13.728 2°52.445 17.2808 0.031876 0.17523 -0.652328
2010-11-08 07:45:42 51°13.719 2°52.417 17.2543 0.031876 0.175238 -0.652328
2010-11-08 07:45:47 51°13.71 2°52.389 17.2403 0.031876 0.175238 -0.652328
2010-11-08 07:45:52 51°13.701 2°52.361 17.249 0.031876 0.175246 -0.652328
2010-11-08 07:45:57 51°13.692 2°52.332 17.2639 0.031876 0.175252 -0.687152
2010-11-08 07:46:02 51°13.682 2°52.304 17.2405 0.031876 0.175263 -0.652328
2010-11-08 07:46:07 51°13.673 2°52.275 17.274 0.031876 0.175271 -0.652328
2010-11-08 07:46:11 51°13.666 2°52.253 17.2559 0.031876 0.175274 -0.652328
2010-11-08 07:46:17 51°13.655 2°52.219 17.2493 0.031876 0.175274 -0.652328
2010-11-08 07:46:22 51°13.645 2°52.191 17.2429 0.031772 0.174702 -0.617504
2010-11-08 07:46:27 51°13.635 2°52.163 17.2488 0.031876 0.175279 -0.652328
2010-11-08 07:46:31 51°13.628 2°52.14 17.2802 0.031876 0.175285 -0.617504
2010-11-08 07:46:37 51°13.617 2°52.106 17.2574 0.031876 0.17529 -0.652328
2010-11-08 07:46:42 51°13.608 2°52.078 17.2612 0.031772 0.174713 -0.652328
2010-11-08 07:46:47 51°13.599 2°52.049 17.2752 0.031772 0.174713 -0.652328
2010-11-08 07:46:52 51°13.59 2°52.02 17.241 0.031876 0.175293 -0.617504
2010-11-08 07:46:57 51°13.58 2°51.992 17.2822 0.031876 0.175299 -0.652328
2010-11-08 07:47:02 51°13.571 2°51.963 17.1705 0.031876 0.175302 -0.617504
2010-11-08 07:47:07 51°13.562 2°51.935 17.1452 0.031876 0.175313 -0.617504
2010-11-08 07:47:11 51°13.555 2°51.912 17.1552 0.031876 0.175315 -0.652328
2010-11-08 07:47:17 51°13.545 2°51.877 17.261 0.031876 0.175315 -0.652328
2010-11-08 07:47:22 51°13.539 2°51.849 17.2368 0.031772 0.174741 -0.652328
2010-11-08 07:47:27 51°13.533 2°51.822 17.2772 0.031772 0.174749 -0.652328
2010-11-08 07:47:32 51°13.527 2°51.794 17.2585 0.031772 0.174754 -0.652328
2010-11-08 07:47:37 51°13.523 2°51.768 17.2966 0.031772 0.174763 -0.652328
2010-11-08 07:47:42 51°13.518 2°51.744 17.3233 0.031772 0.174768 -0.652328
2010-11-08 07:47:47 51°13.513 2°51.721 17.328 0.031772 0.174768 -0.652328
2010-11-08 07:47:51 51°13.51 2°51.704 17.3246 0.031772 0.174776 -0.617504
2010-11-08 07:47:57 51°13.505 2°51.678 17.3479 0.031772 0.174785 -0.652328
2010-11-08 07:48:02 51°13.5 2°51.658 17.3433 0.031876 0.175368 -0.617504
2010-11-08 07:48:07 51°13.495 2°51.64 17.3352 0.031772 0.174799 -0.687152
2010-11-08 07:48:12 51°13.49 2°51.623 17.3396 0.031772 0.174801 -0.652328
2010-11-08 07:48:17 51°13.485 2°51.607 17.3344 0.031772 0.174801 -0.652328
2010-11-08 07:48:22 51°13.48 2°51.591 17.3126 0.031772 0.17481 -0.652328
2010-11-08 07:48:27 51°13.476 2°51.577 17.2914 0.031772 0.174812 -0.687152
2010-11-08 07:48:31 51°13.472 2°51.566 17.3029 0.031772 0.174812 -0.652328
2010-11-08 07:48:37 51°13.467 2°51.549 17.2951 0.031772 0.17481 -0.652328
2010-11-08 07:48:42 51°13.463 2°51.536 17.3075 0.031772 0.174812 -0.652328
2010-11-08 07:48:47 51°13.459 2°51.524 17.3064 0.031772 0.174812 -0.652328
2010-11-08 07:48:51 51°13.456 2°51.514 17.2977 0.031876 0.17539 -0.617504
2010-11-08 07:48:57 51°13.452 2°51.502 17.2766 0.031772 0.174821 -0.652328
2010-11-08 07:49:02 51°13.449 2°51.491 17.3174 0.031772 0.174826 -0.652328
2010-11-08 07:49:07 51°13.447 2°51.482 17.2945 0.031772 0.174832 -0.652328
2010-11-08 07:49:11 51°13.445 2°51.475 17.2914 0.031772 0.174837 -0.617504
2010-11-08 07:49:17 51°13.443 2°51.465 17.2273 0.031772 0.174837 -0.617504
2010-11-08 07:49:22 51°13.441 2°51.457 17.2937 0.031772 0.17484 -0.652328
2010-11-08 07:49:27 51°13.44 2°51.451 17.275 0.031772 0.174843 -0.652328
2010-11-08 07:49:32 51°13.439 2°51.446 17.2849 0.031772 0.174854 -0.652328
2010-11-08 07:49:37 51°13.439 2°51.441 17.2982 0.031772 0.174857 -0.652328
2010-11-08 07:49:42 51°13.438 2°51.438 17.3237 0.031772 0.174862 -0.652328
2010-11-08 07:49:47 51°13.437 2°51.435 17.3188 0.031772 0.174862 -0.652328
2010-11-08 07:49:51 51°13.437 2°51.433 17.3077 0.031772 0.174873 -0.652328
2010-11-08 07:49:57 51°13.436 2°51.431 17.2885 0.031772 0.174882 -0.652328
2010-11-08 07:50:02 51°13.436 2°51.43 17.3217 0.031772 0.174893 -0.652328
2010-11-08 07:50:07 51°13.435 2°51.429 17.3338 0.031772 0.174898 -0.652328
2010-11-08 07:50:11 51°13.434 2°51.428 17.329 0.031772 0.174898 -0.652328
2010-11-08 07:50:18 51°13.433 2°51.426 17.3132 0.031772 0.174898 -0.652328
2010-11-08 07:50:23 51°13.433 2°51.425 17.3298 0.031772 0.174904 -0.652328
2010-11-08 07:50:29 51°13.432 2°51.423 17.3278 0.031772 0.174904 -0.617504
2010-11-08 07:50:35 51°13.431 2°51.421 17.3088 0.031772 0.174906 -0.652328
2010-11-08 07:50:39 51°13.431 2°51.419 17.2975 0.031772 0.174909 -0.652328
2010-11-08 07:50:45 51°13.43 2°51.417 17.294 0.031772 0.174909 -0.652328
2010-11-08 07:50:51 51°13.429 2°51.415 17.3218 0.031772 0.174909 -0.652328
2010-11-08 07:50:55 51°13.429 2°51.414 17.2803 0.031772 0.174912 -0.652328
2010-11-08 07:51:00 51°13.428 2°51.412 16.8132 0.031772 0.174918 -0.617504
2010-11-08 07:51:05 51°13.428 2°51.409 16.9749 0.031772 0.174918 -0.687152
2010-11-08 07:51:11 51°13.428 2°51.407 16.9744 0.031772 0.174923 -0.687152
2010-11-08 07:51:15 51°13.427 2°51.405 16.9849 0.031772 0.174926 -0.652328
2010-11-08 07:51:20 51°13.427 2°51.403 16.9905 0.031772 0.174926 -0.652328
2010-11-08 07:51:25 51°13.426 2°51.401 16.9944 0.031772 0.174929 -0.652328
2010-11-08 07:51:30 51°13.426 2°51.398 17.0052 0.031772 0.174937 -0.617504
2010-11-08 07:51:35 51°13.426 2°51.396 17.0092 0.031772 0.17494 -0.652328
2010-11-08 07:51:40 51°13.425 2°51.393 17.0271 0.031772 0.174948 -0.652328
2010-11-08 07:51:45 51°13.425 2°51.391 17.032 0.031772 0.174951 -0.652328
2010-11-08 07:51:50 51°13.425 2°51.388 17.0326 0.031772 0.174951 -0.652328
2010-11-08 07:51:55 51°13.425 2°51.386 17.0344 0.031772 0.174954 -0.652328
2010-11-08 07:51:59 51°13.425 2°51.384 17.041 0.031772 0.174956 -0.652328
2010-11-08 07:52:04 51°13.424 2°51.381 17.0425 0.031772 0.174962 -0.617504
2010-11-08 07:52:09 51°13.424 2°51.379 17.0552 0.031772 0.174967 -0.617504
2010-11-08 07:52:14 51°13.424 2°51.376 17.0613 0.031772 0.174976 -0.652328
2010-11-08 07:52:19 51°13.424 2°51.374 17.0655 0.031772 0.174976 -0.652328
2010-11-08 07:52:23 51°13.424 2°51.371 17.0585 0.031772 0.174978 -0.687152
2010-11-08 07:52:28 51°13.424 2°51.369 17.073 0.031772 0.174981 -0.652328
2010-11-08 07:52:33 51°13.424 2°51.366 17.0699 0.031772 0.174987 -0.652328
2010-11-08 07:52:38 51°13.424 2°51.363 17.0738 0.031772 0.17499 -0.617504
2010-11-08 07:52:43 51°13.424 2°51.36 17.0672 0.031772 0.174992 -0.652328
2010-11-08 07:52:47 51°13.424 2°51.358 17.0705 0.031772 0.174992 -0.652328
2010-11-08 07:52:52 51°13.424 2°51.354 17.0811 0.031772 0.174995 -0.652328
2010-11-08 07:52:57 51°13.423 2°51.352 17.0752 0.031772 0.174998 -0.617504
2010-11-08 07:53:02 51°13.423 2°51.349 17.0777 0.031772 0.175001 -0.652328
2010-11-08 07:53:07 51°13.423 2°51.346 17.0828 0.031772 0.175006 -0.652328
2010-11-08 07:53:11 51°13.423 2°51.344 17.0792 0.031772 0.175012 -0.652328
2010-11-08 07:53:17 51°13.423 2°51.34 17.0808 0.031772 0.175012 -0.652328
2010-11-08 07:53:22 51°13.423 2°51.338 17.081 0.031772 0.175017 -0.617504
2010-11-08 07:53:27 51°13.423 2°51.335 17.0898 0.031772 0.17502 -0.652328
2010-11-08 07:53:32 51°13.423 2°51.332 17.0867 0.031772 0.175028 -0.652328
2010-11-08 07:53:37 51°13.423 2°51.328 17.0918 0.031772 0.175028 -0.652328
2010-11-08 07:53:42 51°13.423 2°51.325 17.0933 0.031772 0.175034 -0.652328
2010-11-08 07:53:47 51°13.423 2°51.322 17.0928 0.031772 0.175034 -0.652328
2010-11-08 07:53:52 51°13.422 2°51.32 17.0968 0.031772 0.175037 -0.652328
2010-11-08 07:53:57 51°13.423 2°51.316 17.0941 0.031772 0.175039 -0.652328
2010-11-08 07:54:02 51°13.423 2°51.313 17.0966 0.031772 0.175045 -0.617504
2010-11-08 07:54:07 51°13.423 2°51.31 17.0996 0.031772 0.175048 -0.652328
2010-11-08 07:54:12 51°13.423 2°51.307 17.0992 0.031772 0.175056 -0.652328
2010-11-08 07:54:17 51°13.423 2°51.303 17.102 0.031772 0.175056 -0.652328
2010-11-08 07:54:22 51°13.423 2°51.3 17.1054 0.031772 0.175059 -0.617504
2010-11-08 07:54:27 51°13.423 2°51.297 17.108 0.031772 0.175064 -0.652328
2010-11-08 07:54:31 51°13.422 2°51.294 17.1055 0.031772 0.17507 -0.687152
2010-11-08 07:54:37 51°13.422 2°51.29 17.1083 0.031772 0.175075 -0.617504
2010-11-08 07:54:42 51°13.422 2°51.287 17.111 0.031772 0.175078 -0.652328
2010-11-08 07:54:47 51°13.422 2°51.284 17.1104 0.031772 0.175078 -0.652328
2010-11-08 07:54:51 51°13.422 2°51.281 17.11 0.031772 0.175081 -0.652328
2010-11-08 07:54:57 51°13.422 2°51.277 17.1134 0.031772 0.175084 -0.652328
2010-11-08 07:55:02 51°13.422 2°51.273 17.1144 0.031772 0.175089 -0.652328
2010-11-08 07:55:07 51°13.423 2°51.27 17.1161 0.031772 0.175092 -0.652328
2010-11-08 07:55:11 51°13.422 2°51.267 17.1186 0.031772 0.175098 -0.652328
2010-11-08 07:55:17 51°13.422 2°51.263 17.1219 0.031772 0.175098 -0.652328
2010-11-08 07:55:22 51°13.422 2°51.259 17.123 0.031772 0.1751 -0.652328
2010-11-08 07:55:27 51°13.422 2°51.255 17.1254 0.031772 0.175106 -0.652328
2010-11-08 07:55:32 51°13.421 2°51.25 17.1269 0.031772 0.175109 -0.652328
2010-11-08 07:55:37 51°13.421 2°51.245 17.1286 0.031772 0.175114 -0.652328
2010-11-08 07:55:42 51°13.421 2°51.24 17.1293 0.031772 0.175125 -0.652328
2010-11-08 07:55:47 51°13.42 2°51.235 17.1337 0.031772 0.175125 -0.652328
2010-11-08 07:55:51 51°13.42 2°51.23 17.1361 0.031772 0.175128 -0.652328
2010-11-08 07:55:57 51°13.419 2°51.223 17.1389 0.031772 0.175134 -0.652328
2010-11-08 07:56:02 51°13.418 2°51.217 17.1388 0.031772 0.175137 -0.652328
2010-11-08 07:56:07 51°13.416 2°51.211 17.1429 0.031772 0.175142 -0.652328
2010-11-08 07:56:11 51°13.415 2°51.206 17.1441 0.031772 0.175145 -0.617504
2010-11-08 07:56:17 51°13.414 2°51.198 17.1467 0.031772 0.175145 -0.617504
2010-11-08 07:56:22 51°13.413 2°51.191 17.149 0.031772 0.175145 -0.652328
2010-11-08 07:56:27 51°13.411 2°51.185 17.1473 0.031772 0.17515 -0.687152
2010-11-08 07:56:31 51°13.409 2°51.18 17.1514 0.031772 0.175156 -0.652328
2010-11-08 07:56:37 51°13.406 2°51.172 17.1541 0.031668 0.17458 -0.652328
2010-11-08 07:56:42 51°13.404 2°51.166 17.1552 0.031772 0.175164 -0.652328
2010-11-08 07:56:47 51°13.401 2°51.159 17.1549 0.031772 0.175164 -0.652328
2010-11-08 07:56:52 51°13.398 2°51.153 17.157 0.031772 0.175167 -0.652328
2010-11-08 07:56:57 51°13.395 2°51.147 17.1529 0.031772 0.17517 -0.687152
2010-11-08 07:57:02 51°13.392 2°51.142 17.1536 0.031772 0.175175 -0.652328
2010-11-08 07:57:07 51°13.389 2°51.135 17.1588 0.031772 0.175181 -0.652328
2010-11-08 07:57:12 51°13.385 2°51.13 17.1537 0.031772 0.175187 -0.652328
2010-11-08 07:57:17 51°13.381 2°51.125 17.1575 0.031772 0.175187 -0.652328
2010-11-08 07:57:22 51°13.377 2°51.12 17.1587 0.031772 0.175192 -0.652328
2010-11-08 07:57:27 51°13.373 2°51.116 17.1614 0.031772 0.175195 -0.652328
2010-11-08 07:57:31 51°13.37 2°51.113 17.1628 0.031772 0.175198 -0.652328
2010-11-08 07:57:37 51°13.365 2°51.108 17.1673 0.031772 0.175203 -0.652328
2010-11-08 07:57:42 51°13.36 2°51.105 17.1702 0.031772 0.175206 -0.652328
2010-11-08 07:57:47 51°13.356 2°51.102 17.1653 0.031772 0.175206 -0.652328
2010-11-08 07:57:51 51°13.353 2°51.1 17.1724 0.031772 0.175209 -0.652328
2010-11-08 07:57:57 51°13.347 2°51.097 17.1696 0.031772 0.175214 -0.652328
2010-11-08 07:58:02 51°13.343 2°51.096 17.1695 0.031772 0.175214 -0.652328
2010-11-08 07:58:07 51°13.338 2°51.095 17.1732 0.031772 0.17522 -0.652328
2010-11-08 07:58:11 51°13.335 2°51.094 17.1671 0.031772 0.17522 -0.652328
2010-11-08 07:58:17 51°13.329 2°51.093 17.1725 0.031772 0.17522 -0.652328
2010-11-08 07:58:22 51°13.324 2°51.093 17.1638 0.031668 0.174641 -0.652328
2010-11-08 07:58:27 51°13.319 2°51.092 17.1769 0.031772 0.175225 -0.652328
2010-11-08 07:58:32 51°13.313 2°51.093 17.1767 0.031772 0.175228 -0.652328
2010-11-08 07:58:37 51°13.307 2°51.093 17.1813 0.031668 0.174652 -0.617504
2010-11-08 07:58:42 51°13.301 2°51.093 17.1788 0.031668 0.174657 -0.652328
2010-11-08 07:58:47 51°13.295 2°51.094 17.1785 0.031668 0.174657 -0.652328
2010-11-08 07:58:51 51°13.29 2°51.094 17.1691 0.031772 0.175242 -0.652328
2010-11-08 07:58:57 51°13.282 2°51.094 17.1739 0.031772 0.175248 -0.652328
2010-11-08 07:59:02 51°13.275 2°51.094 17.1681 0.031668 0.174671 -0.652328
2010-11-08 07:59:07 51°13.269 2°51.093 17.1809 0.031668 0.174682 -0.652328
2010-11-08 07:59:11 51°13.263 2°51.093 17.17 0.031668 0.174688 -0.617504
2010-11-08 07:59:17 51°13.254 2°51.092 17.1759 0.031668 0.174688 -0.617504
2010-11-08 07:59:22 51°13.247 2°51.09 17.1876 0.031668 0.174693 -0.652328
2010-11-08 07:59:27 51°13.24 2°51.087 17.1848 0.031772 0.175276 -0.652328
2010-11-08 07:59:31 51°13.234 2°51.085 17.1898 0.031668 0.174704 -0.652328
2010-11-08 07:59:37 51°13.225 2°51.08 17.1923 0.031772 0.175287 -0.617504
2010-11-08 07:59:42 51°13.218 2°51.076 17.1967 0.031668 0.174713 -0.652328
2010-11-08 07:59:47 51°13.211 2°51.071 17.2011 0.031668 0.174713 -0.652328
2010-11-08 07:59:51 51°13.205 2°51.067 17.2052 0.031668 0.174721 -0.652328
2010-11-08 07:59:57 51°13.197 2°51.06 17.213 0.031668 0.174727 -0.652328
2010-11-08 08:00:02 51°13.191 2°51.054 17.2042 0.031668 0.174732 -0.687152
2010-11-08 08:00:07 51°13.185 2°51.048 17.2212 0.031668 0.174738 -0.652328
2010-11-08 08:00:12 51°13.179 2°51.042 17.2079 0.031668 0.174743 -0.652328
2010-11-08 08:00:17 51°13.173 2°51.036 17.2228 0.031668 0.174743 -0.652328
2010-11-08 08:00:22 51°13.168 2°51.029 17.2228 0.031668 0.174746 -0.652328
2010-11-08 08:00:27 51°13.162 2°51.024 17.2279 0.031668 0.174749 -0.617504
2010-11-08 08:00:31 51°13.158 2°51.018 17.229 0.031668 0.174749 -0.652328
2010-11-08 08:00:37 51°13.153 2°51.011 17.236 0.031668 0.174752 -0.687152
2010-11-08 08:00:42 51°13.148 2°51.004 17.2315 0.031668 0.174754 -0.652328
2010-11-08 08:00:47 51°13.144 2°50.998 17.2345 0.031668 0.174754 -0.652328
2010-11-08 08:00:51 51°13.14 2°50.993 17.2366 0.031668 0.174754 -0.652328
2010-11-08 08:00:57 51°13.135 2°50.985 17.2386 0.031668 0.17476 -0.687152
2010-11-08 08:01:02 51°13.131 2°50.979 17.2445 0.031668 0.174763 -0.652328
2010-11-08 08:01:07 51°13.127 2°50.972 17.2357 0.031668 0.174765 -0.652328
2010-11-08 08:01:11 51°13.124 2°50.967 17.2487 0.031668 0.174771 -0.687152
2010-11-08 08:01:17 51°13.12 2°50.959 17.2482 0.031668 0.174771 -0.687152
2010-11-08 08:01:22 51°13.117 2°50.953 17.2483 0.031668 0.174774 -0.687152
2010-11-08 08:01:27 51°13.113 2°50.946 17.2471 0.031668 0.174779 -0.652328
2010-11-08 08:01:32 51°13.11 2°50.94 17.2458 0.031668 0.174782 -0.687152
2010-11-08 08:01:37 51°13.107 2°50.934 17.2514 0.031668 0.174788 -0.652328
2010-11-08 08:01:42 51°13.104 2°50.928 17.256 0.031668 0.174788 -0.652328
2010-11-08 08:01:47 51°13.101 2°50.922 17.2533 0.031668 0.174788 -0.652328
2010-11-08 08:01:51 51°13.098 2°50.917 17.2599 0.031668 0.174793 -0.652328
2010-11-08 08:01:57 51°13.095 2°50.91 17.2567 0.031668 0.174796 -0.652328
2010-11-08 08:02:02 51°13.092 2°50.904 17.2604 0.031668 0.174802 -0.652328
2010-11-08 08:02:07 51°13.09 2°50.899 17.2556 0.031668 0.174804 -0.652328
2010-11-08 08:02:11 51°13.088 2°50.894 17.2657 0.031668 0.174807 -0.652328
2010-11-08 08:02:17 51°13.084 2°50.887 17.2701 0.031668 0.174807 -0.652328
2010-11-08 08:02:22 51°13.082 2°50.881 17.2667 0.031668 0.17481 -0.687152
2010-11-08 08:02:27 51°13.079 2°50.876 17.2784 0.031668 0.174813 -0.687152
2010-11-08 08:02:31 51°13.077 2°50.871 17.272 0.031668 0.174815 -0.652328
2010-11-08 08:02:37 51°13.073 2°50.864 17.2762 0.031668 0.174818 -0.652328
2010-11-08 08:02:42 51°13.07 2°50.859 17.2784 0.031668 0.174824 -0.652328
2010-11-08 08:02:47 51°13.067 2°50.853 17.2782 0.031668 0.174824 -0.652328
2010-11-08 08:02:51 51°13.065 2°50.848 17.2814 0.031668 0.174829 -0.687152
2010-11-08 08:02:57 51°13.061 2°50.841 17.2801 0.031668 0.174829 -0.617504
2010-11-08 08:03:02 51°13.058 2°50.836 17.2835 0.031668 0.174832 -0.652328
2010-11-08 08:03:07 51°13.055 2°50.83 17.2909 0.031668 0.174838 -0.652328
2010-11-08 08:03:12 51°13.052 2°50.825 17.2841 0.031668 0.174838 -0.617504
2010-11-08 08:03:17 51°13.048 2°50.819 17.2969 0.031668 0.174838 -0.617504
2010-11-08 08:03:22 51°13.045 2°50.814 17.2928 0.031668 0.174843 -0.652328
2010-11-08 08:03:27 51°13.042 2°50.808 17.2946 0.031668 0.174849 -0.617504
2010-11-08 08:03:31 51°13.039 2°50.804 17.2949 0.031668 0.174852 -0.652328
2010-11-08 08:03:37 51°13.035 2°50.797 17.2973 0.031668 0.174854 -0.617504
2010-11-08 08:03:42 51°13.032 2°50.792 17.2972 0.031668 0.17486 -0.652328
2010-11-08 08:03:47 51°13.028 2°50.787 17.2993 0.031668 0.17486 -0.652328
2010-11-08 08:03:51 51°13.026 2°50.782 17.287 0.031668 0.17486 -0.652328
2010-11-08 08:03:57 51°13.022 2°50.776 17.3101 0.031668 0.174865 -0.652328
2010-11-08 08:04:02 51°13.018 2°50.77 17.3076 0.031668 0.174868 -0.652328
2010-11-08 08:04:07 51°13.015 2°50.766 17.3054 0.031668 0.174871 -0.652328
2010-11-08 08:04:11 51°13.012 2°50.761 17.3047 0.031668 0.174874 -0.652328
2010-11-08 08:04:17 51°13.008 2°50.755 17.3049 0.031668 0.174874 -0.652328
2010-11-08 08:04:22 51°13.004 2°50.75 17.3146 0.031668 0.174879 -0.652328
2010-11-08 08:04:27 51°13.001 2°50.745 17.3033 0.031668 0.174885 -0.652328
2010-11-08 08:04:32 51°12.997 2°50.741 17.3159 0.031668 0.174888 -0.617504
2010-11-08 08:04:37 51°12.994 2°50.736 17.3175 0.031668 0.17489 -0.617504
2010-11-08 08:04:42 51°12.99 2°50.731 17.3212 0.031668 0.174893 -0.652328
2010-11-08 08:04:47 51°12.987 2°50.726 17.3053 0.031668 0.174893 -0.652328
2010-11-08 08:04:51 51°12.983 2°50.723 17.3279 0.031668 0.174899 -0.687152
2010-11-08 08:04:57 51°12.979 2°50.718 17.3092 0.031668 0.174902 -0.652328
2010-11-08 08:05:02 51°12.975 2°50.713 17.3347 0.031668 0.174904 -0.652328
2010-11-08 08:05:07 51°12.971 2°50.708 17.3233 0.031668 0.174907 -0.652328
2010-11-08 08:05:11 51°12.968 2°50.705 17.3334 0.031668 0.17491 -0.617504
2010-11-08 08:05:17 51°12.963 2°50.699 17.3265 0.031668 0.17491 -0.617504
2010-11-08 08:05:22 51°12.96 2°50.694 17.3349 0.031668 0.174915 -0.652328
2010-11-08 08:05:27 51°12.956 2°50.689 17.3271 0.031668 0.174918 -0.652328
2010-11-08 08:05:31 51°12.953 2°50.685 17.3418 0.031668 0.174921 -0.652328
2010-11-08 08:05:37 51°12.948 2°50.679 17.338 0.031668 0.174924 -0.617504
2010-11-08 08:05:42 51°12.945 2°50.674 17.3437 0.031668 0.174927 -0.652328
2010-11-08 08:05:47 51°12.941 2°50.669 17.3421 0.031668 0.174927 -0.652328
2010-11-08 08:05:51 51°12.938 2°50.665 17.3502 0.031668 0.174935 -0.652328
2010-11-08 08:05:57 51°12.933 2°50.659 17.3498 0.031668 0.17494 -0.652328
2010-11-08 08:06:02 51°12.929 2°50.653 17.3504 0.031668 0.174943 -0.652328
2010-11-08 08:06:07 51°12.926 2°50.648 17.3474 0.031668 0.174949 -0.652328
2010-11-08 08:06:12 51°12.922 2°50.642 17.3511 0.031668 0.174952 -0.652328
2010-11-08 08:06:17 51°12.919 2°50.637 17.3545 0.031668 0.174952 -0.652328
2010-11-08 08:06:22 51°12.915 2°50.631 17.3559 0.031668 0.174954 -0.687152
2010-11-08 08:06:27 51°12.912 2°50.625 17.3636 0.031668 0.17496 -0.652328
2010-11-08 08:06:31 51°12.909 2°50.62 17.3673 0.031668 0.174963 -0.687152
2010-11-08 08:06:37 51°12.905 2°50.613 17.3686 0.031668 0.174968 -0.617504
2010-11-08 08:06:42 51°12.901 2°50.607 17.3657 0.031668 0.174971 -0.687152
2010-11-08 08:06:47 51°12.897 2°50.601 17.3738 0.031668 0.174971 -0.687152
2010-11-08 08:06:51 51°12.895 2°50.596 17.3621 0.031668 0.174974 -0.652328
2010-11-08 08:06:57 51°12.89 2°50.59 17.3687 0.031668 0.174979 -0.687152
2010-11-08 08:07:02 51°12.887 2°50.583 17.3652 0.031668 0.174982 -0.652328
2010-11-08 08:07:07 51°12.884 2°50.577 17.3684 0.031668 0.174988 -0.652328
2010-11-08 08:07:12 51°12.88 2°50.571 17.3836 0.031668 0.174991 -0.652328
2010-11-08 08:07:17 51°12.877 2°50.565 17.3855 0.031668 0.174991 -0.652328
2010-11-08 08:07:22 51°12.873 2°50.559 17.3851 0.031668 0.174993 -0.652328
2010-11-08 08:07:27 51°12.87 2°50.553 17.3862 0.031668 0.174996 -0.652328
2010-11-08 08:07:31 51°12.867 2°50.548 17.3857 0.031668 0.175002 -0.687152
2010-11-08 08:07:37 51°12.863 2°50.54 17.3882 0.031668 0.175004 -0.617504
2010-11-08 08:07:42 51°12.86 2°50.534 17.3861 0.031668 0.175007 -0.652328
2010-11-08 08:07:47 51°12.857 2°50.527 17.3928 0.031668 0.175007 -0.652328
2010-11-08 08:07:51 51°12.854 2°50.522 17.3914 0.031668 0.175013 -0.652328
2010-11-08 08:07:57 51°12.85 2°50.515 17.4044 0.031668 0.175016 -0.652328
2010-11-08 08:08:02 51°12.847 2°50.509 17.3998 0.031668 0.175018 -0.617504
2010-11-08 08:08:07 51°12.843 2°50.502 17.4009 0.031668 0.175024 -0.652328
2010-11-08 08:08:11 51°12.841 2°50.497 17.4 0.031668 0.17503 -0.652328
2010-11-08 08:08:17 51°12.837 2°50.49 17.4055 0.031668 0.17503 -0.652328
2010-11-08 08:08:22 51°12.834 2°50.484 17.4096 0.031668 0.175032 -0.652328
2010-11-08 08:08:27 51°12.831 2°50.477 17.4091 0.031668 0.175038 -0.652328
2010-11-08 08:08:32 51°12.828 2°50.471 17.416 0.031668 0.175041 -0.652328
2010-11-08 08:08:37 51°12.825 2°50.465 17.4152 0.031668 0.175043 -0.687152
2010-11-08 08:08:42 51°12.822 2°50.458 17.4034 0.031668 0.175046 -0.652328
2010-11-08 08:08:47 51°12.818 2°50.453 17.4152 0.031668 0.175046 -0.652328
2010-11-08 08:08:51 51°12.816 2°50.447 17.4127 0.031668 0.175049 -0.652328
2010-11-08 08:08:57 51°12.813 2°50.44 17.4237 0.031668 0.175055 -0.652328
2010-11-08 08:09:02 51°12.81 2°50.434 17.4171 0.031668 0.17506 -0.652328
2010-11-08 08:09:07 51°12.807 2°50.428 17.4319 0.031668 0.175063 -0.652328
2010-11-08 08:09:11 51°12.804 2°50.423 17.4238 0.031668 0.175069 -0.652328
2010-11-08 08:09:17 51°12.801 2°50.415 17.4211 0.031668 0.175069 -0.652328
2010-11-08 08:09:22 51°12.798 2°50.409 17.4202 0.031668 0.175074 -0.652328
2010-11-08 08:09:27 51°12.795 2°50.403 17.423 0.031668 0.175077 -0.652328
2010-11-08 08:09:32 51°12.791 2°50.397 17.4295 0.031668 0.17508 -0.652328
2010-11-08 08:09:37 51°12.788 2°50.391 17.4381 0.031668 0.175085 -0.652328
2010-11-08 08:09:42 51°12.785 2°50.385 17.4309 0.031668 0.175088 -0.652328
2010-11-08 08:09:47 51°12.781 2°50.379 17.4445 0.031668 0.175088 -0.652328
2010-11-08 08:09:51 51°12.779 2°50.374 17.4293 0.031668 0.175091 -0.652328
2010-11-08 08:09:57 51°12.775 2°50.367 17.4464 0.031668 0.175096 -0.687152
2010-11-08 08:10:02 51°12.772 2°50.361 17.4421 0.031668 0.175099 -0.652328
2010-11-08 08:10:07 51°12.769 2°50.355 17.4466 0.031668 0.175102 -0.652328
2010-11-08 08:10:11 51°12.766 2°50.351 17.4413 0.031668 0.175105 -0.652328
2010-11-08 08:10:17 51°12.762 2°50.343 17.4472 0.031668 0.175105 -0.652328
2010-11-08 08:10:22 51°12.759 2°50.337 17.4556 0.031772 0.175691 -0.652328
2010-11-08 08:10:27 51°12.756 2°50.331 17.4465 0.031668 0.175113 -0.652328
2010-11-08 08:10:31 51°12.754 2°50.326 17.4518 0.031668 0.175119 -0.617504
2010-11-08 08:10:37 51°12.75 2°50.319 17.4673 0.031668 0.175124 -0.652328
2010-11-08 08:10:42 51°12.747 2°50.313 17.4624 0.031668 0.175127 -0.652328
2010-11-08 08:10:47 51°12.744 2°50.306 17.4656 0.031668 0.175127 -0.652328
2010-11-08 08:10:51 51°12.741 2°50.302 17.4651 0.031668 0.17513 -0.652328
2010-11-08 08:10:57 51°12.737 2°50.295 17.4652 0.031564 0.174555 -0.652328
2010-11-08 08:11:02 51°12.734 2°50.289 17.4645 0.031668 0.175138 -0.687152
2010-11-08 08:11:07 51°12.731 2°50.283 17.4774 0.031668 0.175144 -0.652328
2010-11-08 08:11:12 51°12.728 2°50.278 17.4703 0.031564 0.174568 -0.652328
2010-11-08 08:11:17 51°12.725 2°50.272 17.4872 0.031564 0.174568 -0.652328
2010-11-08 08:11:22 51°12.722 2°50.266 17.4745 0.031564 0.174574 -0.652328
2010-11-08 08:11:27 51°12.719 2°50.26 17.4736 0.031668 0.175155 -0.652328
2010-11-08 08:11:31 51°12.717 2°50.255 17.4752 0.031668 0.175161 -0.652328
2010-11-08 08:11:37 51°12.713 2°50.249 17.483 0.031668 0.175166 -0.652328
2010-11-08 08:11:42 51°12.71 2°50.243 17.4799 0.031564 0.174588 -0.687152
2010-11-08 08:11:47 51°12.707 2°50.237 17.4859 0.031564 0.174588 -0.687152
2010-11-08 08:11:51 51°12.704 2°50.233 17.4878 0.031564 0.174593 -0.652328
2010-11-08 08:11:57 51°12.701 2°50.226 17.4819 0.031564 0.174596 -0.652328
2010-11-08 08:12:02 51°12.697 2°50.22 17.4873 0.031668 0.175177 -0.617504
2010-11-08 08:12:07 51°12.694 2°50.214 17.4963 0.031668 0.175186 -0.652328
2010-11-08 08:12:12 51°12.691 2°50.208 17.4903 0.031668 0.175186 -0.652328
2010-11-08 08:12:17 51°12.688 2°50.202 17.5077 0.031668 0.175186 -0.652328
2010-11-08 08:12:22 51°12.685 2°50.196 17.5021 0.031564 0.174613 -0.687152
2010-11-08 08:12:27 51°12.682 2°50.191 17.5119 0.031564 0.174616 -0.652328
2010-11-08 08:12:31 51°12.68 2°50.186 17.503 0.031564 0.174619 -0.617504
2010-11-08 08:12:37 51°12.676 2°50.179 17.5065 0.031564 0.174624 -0.652328
2010-11-08 08:12:42 51°12.673 2°50.172 17.5058 0.031564 0.17463 -0.652328
2010-11-08 08:12:47 51°12.67 2°50.166 17.5066 0.031564 0.17463 -0.652328
2010-11-08 08:12:51 51°12.667 2°50.162 17.517 0.031564 0.174632 -0.652328
2010-11-08 08:12:57 51°12.663 2°50.154 17.5068 0.031564 0.174635 -0.687152
2010-11-08 08:13:02 51°12.66 2°50.148 17.529 0.031564 0.174644 -0.652328
2010-11-08 08:13:07 51°12.657 2°50.142 17.523 0.031564 0.174646 -0.652328
2010-11-08 08:13:11 51°12.655 2°50.137 17.5296 0.031564 0.174652 -0.652328
2010-11-08 08:13:17 51°12.651 2°50.13 17.5186 0.031564 0.174652 -0.652328
2010-11-08 08:13:22 51°12.648 2°50.124 17.5351 0.031564 0.174657 -0.687152
2010-11-08 08:13:27 51°12.645 2°50.117 17.5346 0.031564 0.174657 -0.652328
2010-11-08 08:13:32 51°12.642 2°50.111 17.5284 0.031564 0.17466 -0.652328
2010-11-08 08:13:37 51°12.64 2°50.104 17.5346 0.031564 0.174663 -0.652328
2010-11-08 08:13:42 51°12.637 2°50.098 17.5383 0.031564 0.174671 -0.652328
2010-11-08 08:13:47 51°12.634 2°50.091 17.5387 0.031564 0.174671 -0.652328
2010-11-08 08:13:51 51°12.632 2°50.086 17.5464 0.031564 0.174671 -0.652328
2010-11-08 08:13:57 51°12.629 2°50.078 17.5369 0.031564 0.174677 -0.652328
2010-11-08 08:14:02 51°12.626 2°50.072 17.5475 0.031564 0.174683 -0.652328
2010-11-08 08:14:07 51°12.623 2°50.065 17.5385 0.031564 0.174688 -0.687152
2010-11-08 08:14:11 51°12.621 2°50.06 17.5482 0.031564 0.174694 -0.652328
2010-11-08 08:14:17 51°12.618 2°50.051 17.5461 0.031564 0.174694 -0.652328
2010-11-08 08:14:22 51°12.615 2°50.045 17.5485 0.031564 0.174696 -0.652328
2010-11-08 08:14:27 51°12.612 2°50.038 17.5532 0.031564 0.174702 -0.652328
2010-11-08 08:14:32 51°12.61 2°50.032 17.5513 0.031564 0.174705 -0.652328
2010-11-08 08:14:37 51°12.607 2°50.025 17.5406 0.031564 0.17471 -0.652328
2010-11-08 08:14:42 51°12.605 2°50.018 17.5529 0.031564 0.174713 -0.687152
2010-11-08 08:14:47 51°12.602 2°50.012 17.5635 0.031564 0.174713 -0.687152
2010-11-08 08:14:51 51°12.6 2°50.006 17.5621 0.031564 0.174719 -0.652328
2010-11-08 08:14:57 51°12.597 2°49.998 17.5661 0.031564 0.174722 -0.687152
2010-11-08 08:15:02 51°12.594 2°49.992 17.5641 0.031564 0.174727 -0.652328
2010-11-08 08:15:07 51°12.591 2°49.985 17.5701 0.031564 0.17473 -0.617504
2010-11-08 08:15:12 51°12.589 2°49.979 17.5738 0.031564 0.174735 -0.687152
2010-11-08 08:15:17 51°12.587 2°49.972 17.5684 0.031564 0.174735 -0.687152
2010-11-08 08:15:22 51°12.584 2°49.965 17.5783 0.031564 0.174738 -0.652328
2010-11-08 08:15:27 51°12.581 2°49.959 17.5798 0.031564 0.174744 -0.687152
2010-11-08 08:15:31 51°12.579 2°49.953 17.5818 0.031564 0.174749 -0.652328
2010-11-08 08:15:37 51°12.576 2°49.945 17.5812 0.031564 0.174752 -0.652328
2010-11-08 08:15:42 51°12.573 2°49.939 17.5813 0.031564 0.174758 -0.652328
2010-11-08 08:15:47 51°12.571 2°49.932 17.5925 0.031564 0.174758 -0.652328
2010-11-08 08:15:51 51°12.57 2°49.926 17.5707 0.031564 0.174761 -0.652328
2010-11-08 08:15:57 51°12.567 2°49.918 17.58 0.031564 0.174766 -0.652328
2010-11-08 08:16:02 51°12.563 2°49.912 17.5797 0.031564 0.174769 -0.652328
2010-11-08 08:16:07 51°12.561 2°49.905 17.589 0.031564 0.174774 -0.687152
2010-11-08 08:16:12 51°12.558 2°49.899 17.5954 0.031564 0.174783 -0.652328
2010-11-08 08:16:17 51°12.556 2°49.891 17.5924 0.031564 0.174783 -0.652328
2010-11-08 08:16:22 51°12.554 2°49.884 17.598 0.031564 0.174783 -0.687152
2010-11-08 08:16:27 51°12.551 2°49.878 17.5949 0.031564 0.174786 -0.617504
2010-11-08 08:16:31 51°12.549 2°49.872 17.6049 0.031564 0.174794 -0.652328
2010-11-08 08:16:37 51°12.546 2°49.864 17.6006 0.031564 0.174797 -0.652328
2010-11-08 08:16:42 51°12.544 2°49.857 17.6115 0.031564 0.174802 -0.652328
2010-11-08 08:16:47 51°12.541 2°49.85 17.61 0.031564 0.174802 -0.652328
2010-11-08 08:16:52 51°12.539 2°49.844 17.6207 0.031564 0.174805 -0.652328
2010-11-08 08:16:57 51°12.536 2°49.837 17.6183 0.031564 0.174811 -0.652328
2010-11-08 08:17:02 51°12.534 2°49.83 17.6096 0.031564 0.174814 -0.687152
2010-11-08 08:17:07 51°12.531 2°49.824 17.621 0.031564 0.174822 -0.652328
2010-11-08 08:17:11 51°12.529 2°49.818 17.6188 0.031564 0.174825 -0.687152
2010-11-08 08:17:17 51°12.526 2°49.81 17.623 0.031564 0.174825 -0.687152
2010-11-08 08:17:22 51°12.524 2°49.803 17.6261 0.031564 0.17483 -0.652328
2010-11-08 08:17:27 51°12.521 2°49.797 17.641 0.031564 0.174836 -0.652328
2010-11-08 08:17:31 51°12.519 2°49.791 17.6313 0.031564 0.174836 -0.687152
2010-11-08 08:17:37 51°12.516 2°49.783 17.6417 0.031564 0.174844 -0.617504
2010-11-08 08:17:42 51°12.513 2°49.776 17.6247 0.031564 0.17485 -0.652328
2010-11-08 08:17:47 51°12.511 2°49.769 17.6423 0.031564 0.17485 -0.652328
2010-11-08 08:17:51 51°12.509 2°49.764 17.6383 0.031564 0.174853 -0.652328
2010-11-08 08:17:57 51°12.505 2°49.756 17.637 0.031564 0.174861 -0.687152
2010-11-08 08:18:02 51°12.504 2°49.749 17.6356 0.031564 0.174864 -0.652328
2010-11-08 08:18:07 51°12.501 2°49.742 17.643 0.031564 0.174869 -0.652328
2010-11-08 08:18:11 51°12.499 2°49.737 17.6419 0.031564 0.174872 -0.687152
2010-11-08 08:18:17 51°12.496 2°49.728 17.6492 0.031564 0.174872 -0.687152
2010-11-08 08:18:22 51°12.494 2°49.722 17.6388 0.031564 0.174878 -0.652328
2010-11-08 08:18:27 51°12.491 2°49.715 17.6599 0.031564 0.174883 -0.687152
2010-11-08 08:18:32 51°12.489 2°49.707 17.6569 0.031564 0.174886 -0.652328
2010-11-08 08:18:37 51°12.486 2°49.701 17.6634 0.031564 0.174892 -0.652328
2010-11-08 08:18:42 51°12.483 2°49.695 17.6567 0.031564 0.174894 -0.652328
2010-11-08 08:18:47 51°12.481 2°49.688 17.6631 0.031564 0.174894 -0.652328
2010-11-08 08:18:51 51°12.479 2°49.682 17.6569 0.031564 0.1749 -0.652328
2010-11-08 08:18:57 51°12.476 2°49.674 17.6604 0.031564 0.174903 -0.652328
2010-11-08 08:19:02 51°12.473 2°49.667 17.669 0.031564 0.174908 -0.617504
2010-11-08 08:19:07 51°12.47 2°49.661 17.6679 0.031564 0.174914 -0.652328
2010-11-08 08:19:12 51°12.467 2°49.654 17.6688 0.031564 0.17492 -0.652328
2010-11-08 08:19:17 51°12.465 2°49.648 17.6718 0.031564 0.17492 -0.652328
2010-11-08 08:19:22 51°12.462 2°49.641 17.6794 0.031564 0.174925 -0.687152
2010-11-08 08:19:27 51°12.46 2°49.634 17.6815 0.031564 0.174931 -0.652328
2010-11-08 08:19:31 51°12.457 2°49.629 17.6748 0.031564 0.174934 -0.652328
2010-11-08 08:19:37 51°12.454 2°49.621 17.6791 0.031564 0.174942 -0.652328
2010-11-08 08:19:42 51°12.452 2°49.613 17.6953 0.031564 0.174948 -0.687152
2010-11-08 08:19:47 51°12.449 2°49.607 17.6774 0.031564 0.174948 -0.687152
2010-11-08 08:19:52 51°12.446 2°49.6 17.697 0.031564 0.17495 -0.652328
2010-11-08 08:19:57 51°12.444 2°49.593 17.6895 0.031564 0.174956 -0.652328
2010-11-08 08:20:02 51°12.442 2°49.586 17.6956 0.031564 0.174962 -0.652328
2010-11-08 08:20:07 51°12.439 2°49.579 17.7003 0.031564 0.174964 -0.687152
2010-11-08 08:20:11 51°12.437 2°49.574 17.6979 0.031564 0.17497 -0.652328
2010-11-08 08:20:17 51°12.433 2°49.566 17.6996 0.031564 0.17497 -0.652328
2010-11-08 08:20:22 51°12.431 2°49.559 17.7009 0.031564 0.174978 -0.652328
2010-11-08 08:20:27 51°12.428 2°49.553 17.7039 0.031564 0.174984 -0.652328
2010-11-08 08:20:31 51°12.426 2°49.547 17.7044 0.031564 0.17499 -0.617504
2010-11-08 08:20:37 51°12.423 2°49.539 17.7002 0.031564 0.174992 -0.652328
2010-11-08 08:20:42 51°12.42 2°49.532 17.6987 0.031564 0.174998 -0.652328
2010-11-08 08:20:47 51°12.418 2°49.525 17.7121 0.031564 0.174998 -0.652328
2010-11-08 08:20:52 51°12.416 2°49.518 17.7144 0.031564 0.175001 -0.687152
2010-11-08 08:20:57 51°12.413 2°49.512 17.7138 0.031564 0.175006 -0.652328
2010-11-08 08:21:02 51°12.41 2°49.505 17.7151 0.031564 0.175012 -0.652328
2010-11-08 08:21:07 51°12.407 2°49.499 17.7142 0.031564 0.17502 -0.652328
2010-11-08 08:21:11 51°12.405 2°49.493 17.7294 0.031564 0.175023 -0.687152
2010-11-08 08:21:17 51°12.403 2°49.485 17.7216 0.031564 0.175023 -0.687152
2010-11-08 08:21:22 51°12.4 2°49.478 17.7256 0.031564 0.175029 -0.652328
2010-11-08 08:21:27 51°12.398 2°49.471 17.7097 0.031564 0.175034 -0.652328
2010-11-08 08:21:32 51°12.395 2°49.464 17.7355 0.031564 0.175037 -0.652328
2010-11-08 08:21:37 51°12.393 2°49.458 17.7166 0.031564 0.175045 -0.687152
2010-11-08 08:21:42 51°12.39 2°49.451 17.745 0.031564 0.175051 -0.652328
2010-11-08 08:21:47 51°12.387 2°49.444 17.7345 0.031564 0.175051 -0.652328
2010-11-08 08:21:51 51°12.385 2°49.439 17.751 0.031564 0.175054 -0.652328
2010-11-08 08:21:57 51°12.382 2°49.43 17.7455 0.031564 0.175059 -0.687152
2010-11-08 08:22:02 51°12.38 2°49.424 17.7415 0.031564 0.175065 -0.652328
2010-11-08 08:22:07 51°12.377 2°49.417 17.7539 0.031564 0.175071 -0.652328
2010-11-08 08:22:12 51°12.374 2°49.41 17.7527 0.031564 0.175076 -0.687152
2010-11-08 08:22:17 51°12.372 2°49.404 17.7545 0.031564 0.175076 -0.687152
2010-11-08 08:22:22 51°12.369 2°49.397 17.7557 0.031564 0.175079 -0.652328
2010-11-08 08:22:27 51°12.366 2°49.39 17.7488 0.031564 0.175085 -0.687152
2010-11-08 08:22:31 51°12.365 2°49.384 17.7578 0.031564 0.17509 -0.617504
2010-11-08 08:22:37 51°12.361 2°49.376 17.7513 0.031564 0.175093 -0.652328
2010-11-08 08:22:42 51°12.359 2°49.369 17.759 0.031564 0.175099 -0.652328
2010-11-08 08:22:47 51°12.357 2°49.363 17.7668 0.031564 0.175099 -0.652328
2010-11-08 08:22:52 51°12.354 2°49.356 17.7663 0.031564 0.175104 -0.652328
2010-11-08 08:22:57 51°12.351 2°49.349 17.7691 0.031564 0.17511 -0.687152
2010-11-08 08:23:02 51°12.349 2°49.342 17.7652 0.031564 0.175115 -0.652328
2010-11-08 08:23:07 51°12.346 2°49.336 17.7668 0.03146 0.174538 -0.652328
2010-11-08 08:23:11 51°12.344 2°49.33 17.7654 0.031564 0.175124 -0.652328
2010-11-08 08:23:17 51°12.341 2°49.322 17.7817 0.031564 0.175124 -0.652328
2010-11-08 08:23:22 51°12.339 2°49.315 17.7699 0.03146 0.174549 -0.687152
2010-11-08 08:23:27 51°12.336 2°49.308 17.7684 0.031564 0.175135 -0.652328
2010-11-08 08:23:32 51°12.334 2°49.301 17.7883 0.031564 0.175141 -0.652328
2010-11-08 08:23:37 51°12.331 2°49.295 17.7745 0.031564 0.175149 -0.652328
2010-11-08 08:23:42 51°12.329 2°49.288 17.7843 0.031564 0.175152 -0.652328
2010-11-08 08:23:47 51°12.326 2°49.281 17.7814 0.031564 0.175152 -0.652328
2010-11-08 08:23:51 51°12.324 2°49.276 17.7894 0.031564 0.17516 -0.687152
2010-11-08 08:23:57 51°12.321 2°49.267 17.7866 0.03146 0.17458 -0.617504
2010-11-08 08:24:02 51°12.319 2°49.26 17.7916 0.031564 0.175166 -0.652328
2010-11-08 08:24:07 51°12.316 2°49.254 17.7932 0.031564 0.175172 -0.652328
2010-11-08 08:24:11 51°12.313 2°49.249 17.8065 0.03146 0.174597 -0.652328
2010-11-08 08:24:17 51°12.311 2°49.24 17.795 0.03146 0.174597 -0.652328
2010-11-08 08:24:22 51°12.308 2°49.234 17.8003 0.031564 0.175183 -0.687152
2010-11-08 08:24:27 51°12.305 2°49.227 17.8085 0.03146 0.174608 -0.652328
2010-11-08 08:24:31 51°12.303 2°49.222 17.8057 0.031564 0.175194 -0.687152
2010-11-08 08:24:37 51°12.3 2°49.214 17.8086 0.03146 0.174614 -0.687152
2010-11-08 08:24:42 51°12.297 2°49.207 17.8153 0.03146 0.174622 -0.652328
2010-11-08 08:24:47 51°12.295 2°49.2 17.8174 0.03146 0.174622 -0.652328
2010-11-08 08:24:52 51°12.292 2°49.194 17.8241 0.03146 0.174628 -0.687152
2010-11-08 08:24:57 51°12.29 2°49.187 17.8102 0.03146 0.17463 -0.687152
2010-11-08 08:25:02 51°12.287 2°49.18 17.8198 0.03146 0.174639 -0.652328
2010-11-08 08:25:07 51°12.284 2°49.174 17.8228 0.03146 0.174642 -0.687152
2010-11-08 08:25:11 51°12.283 2°49.168 17.8291 0.03146 0.174647 -0.687152
2010-11-08 08:25:17 51°12.279 2°49.161 17.8325 0.03146 0.174647 -0.687152
2010-11-08 08:25:22 51°12.277 2°49.154 17.8242 0.03146 0.174653 -0.687152
2010-11-08 08:25:27 51°12.275 2°49.147 17.8287 0.03146 0.174656 -0.652328
2010-11-08 08:25:31 51°12.273 2°49.141 17.829 0.03146 0.174661 -0.652328
2010-11-08 08:25:37 51°12.27 2°49.133 17.8246 0.03146 0.174667 -0.687152
2010-11-08 08:25:42 51°12.267 2°49.127 17.8289 0.03146 0.174672 -0.652328
2010-11-08 08:25:47 51°12.264 2°49.12 17.8284 0.03146 0.174672 -0.652328
2010-11-08 08:25:51 51°12.263 2°49.115 17.8323 0.03146 0.174678 -0.652328
2010-11-08 08:25:57 51°12.259 2°49.107 17.8522 0.03146 0.174681 -0.652328
2010-11-08 08:26:02 51°12.257 2°49.1 17.8309 0.03146 0.174686 -0.687152
2010-11-08 08:26:07 51°12.254 2°49.093 17.8412 0.03146 0.174692 -0.652328
2010-11-08 08:26:11 51°12.252 2°49.088 17.8388 0.03146 0.174697 -0.652328
2010-11-08 08:26:17 51°12.249 2°49.08 17.8464 0.03146 0.174697 -0.652328
2010-11-08 08:26:22 51°12.247 2°49.073 17.848 0.03146 0.174703 -0.687152
2010-11-08 08:26:27 51°12.244 2°49.067 17.8567 0.03146 0.174709 -0.652328
2010-11-08 08:26:31 51°12.242 2°49.062 17.8531 0.03146 0.174714 -0.652328
2010-11-08 08:26:37 51°12.239 2°49.053 17.8488 0.03146 0.174717 -0.652328
2010-11-08 08:26:42 51°12.236 2°49.047 17.8561 0.03146 0.17472 -0.652328
2010-11-08 08:26:47 51°12.234 2°49.04 17.8522 0.03146 0.17472 -0.652328
2010-11-08 08:26:51 51°12.231 2°49.035 17.8547 0.03146 0.174728 -0.652328
2010-11-08 08:26:57 51°12.229 2°49.026 17.8705 0.03146 0.174731 -0.687152
2010-11-08 08:27:02 51°12.226 2°49.019 17.8638 0.03146 0.174739 -0.687152
2010-11-08 08:27:07 51°12.223 2°49.013 17.8731 0.03146 0.174742 -0.687152
2010-11-08 08:27:12 51°12.22 2°49.006 17.8702 0.03146 0.174748 -0.652328
2010-11-08 08:27:17 51°12.218 2°49 17.8739 0.03146 0.174748 -0.652328
2010-11-08 08:27:22 51°12.215 2°48.993 17.8589 0.03146 0.174756 -0.652328
2010-11-08 08:27:27 51°12.212 2°48.987 17.8814 0.03146 0.174759 -0.652328
2010-11-08 08:27:31 51°12.211 2°48.981 17.8711 0.03146 0.174765 -0.652328
2010-11-08 08:27:37 51°12.207 2°48.973 17.8903 0.03146 0.174767 -0.652328
2010-11-08 08:27:42 51°12.204 2°48.966 17.884 0.03146 0.174776 -0.687152
2010-11-08 08:27:47 51°12.201 2°48.96 17.8896 0.03146 0.174776 -0.687152
2010-11-08 08:27:51 51°12.199 2°48.954 17.8847 0.03146 0.174779 -0.687152
2010-11-08 08:27:57 51°12.196 2°48.946 17.8887 0.03146 0.174784 -0.687152
2010-11-08 08:28:02 51°12.194 2°48.939 17.89 0.03146 0.174787 -0.687152
2010-11-08 08:28:07 51°12.191 2°48.932 17.8907 0.03146 0.174795 -0.687152
2010-11-08 08:28:11 51°12.189 2°48.927 17.8945 0.03146 0.174798 -0.652328
2010-11-08 08:28:17 51°12.186 2°48.918 17.8923 0.03146 0.174798 -0.652328
2010-11-08 08:28:22 51°12.183 2°48.912 17.9012 0.03146 0.174804 -0.652328
2010-11-08 08:28:27 51°12.181 2°48.904 17.9 0.03146 0.17481 -0.652328
2010-11-08 08:28:32 51°12.177 2°48.898 17.9041 0.03146 0.174815 -0.652328
2010-11-08 08:28:37 51°12.175 2°48.891 17.908 0.03146 0.174821 -0.617504
2010-11-08 08:28:42 51°12.172 2°48.884 17.9056 0.03146 0.174824 -0.652328
2010-11-08 08:28:47 51°12.169 2°48.878 17.9122 0.03146 0.174824 -0.652328
2010-11-08 08:28:51 51°12.167 2°48.872 17.9131 0.03146 0.174832 -0.652328
2010-11-08 08:28:57 51°12.164 2°48.864 17.9085 0.03146 0.174835 -0.687152
2010-11-08 08:29:02 51°12.162 2°48.857 17.92 0.03146 0.17484 -0.687152
2010-11-08 08:29:07 51°12.16 2°48.849 17.921 0.03146 0.174843 -0.687152
2010-11-08 08:29:12 51°12.158 2°48.842 17.8697 0.03146 0.174849 -0.652328
2010-11-08 08:29:17 51°12.156 2°48.834 17.8876 0.03146 0.174849 -0.652328
2010-11-08 08:29:22 51°12.154 2°48.827 17.9749 0.03146 0.174852 -0.687152
2010-11-08 08:29:27 51°12.152 2°48.82 17.9746 0.03146 0.174854 -0.652328
2010-11-08 08:29:31 51°12.152 2°48.814 17.9721 0.03146 0.17486 -0.652328
2010-11-08 08:29:37 51°12.15 2°48.805 17.9689 0.03146 0.174868 -0.617504
2010-11-08 08:29:42 51°12.149 2°48.798 17.9696 0.03146 0.174874 -0.687152
2010-11-08 08:29:47 51°12.148 2°48.791 17.9672 0.03146 0.174874 -0.687152
2010-11-08 08:29:52 51°12.148 2°48.783 17.9658 0.03146 0.174885 -0.652328
2010-11-08 08:29:57 51°12.148 2°48.775 17.9714 0.03146 0.174888 -0.652328
2010-11-08 08:30:02 51°12.147 2°48.768 17.967 0.03146 0.174896 -0.687152
2010-11-08 08:30:07 51°12.146 2°48.761 17.9703 0.03146 0.174899 -0.652328
2010-11-08 08:30:11 51°12.146 2°48.755 17.9713 0.03146 0.174908 -0.687152
2010-11-08 08:30:17 51°12.146 2°48.746 17.9704 0.03146 0.174908 -0.687152
2010-11-08 08:30:22 51°12.145 2°48.738 17.973 0.03146 0.174913 -0.687152
2010-11-08 08:30:27 51°12.145 2°48.731 17.971 0.03146 0.174916 -0.652328
2010-11-08 08:30:31 51°12.145 2°48.725 17.9705 0.03146 0.174919 -0.652328
2010-11-08 08:30:37 51°12.145 2°48.716 17.9712 0.03146 0.174919 -0.652328
2010-11-08 08:30:42 51°12.145 2°48.709 17.9701 0.03146 0.174922 -0.687152
2010-11-08 08:30:47 51°12.145 2°48.702 17.9766 0.03146 0.174922 -0.687152
2010-11-08 08:30:52 51°12.146 2°48.695 17.9769 0.03146 0.174925 -0.687152
2010-11-08 08:30:57 51°12.146 2°48.687 17.9756 0.03146 0.174927 -0.687152
2010-11-08 08:31:02 51°12.146 2°48.681 17.9712 0.03146 0.174933 -0.652328
2010-11-08 08:31:07 51°12.147 2°48.674 17.9805 0.03146 0.174941 -0.652328
2010-11-08 08:31:11 51°12.148 2°48.668 17.9836 0.03146 0.174947 -0.652328
2010-11-08 08:31:17 51°12.149 2°48.66 17.9848 0.03146 0.174947 -0.652328
2010-11-08 08:31:22 51°12.149 2°48.654 17.9849 0.03146 0.17495 -0.687152
2010-11-08 08:31:27 51°12.151 2°48.646 17.989 0.03146 0.174961 -0.652328